| time (UTC) | temp F | wind direction | speed MPH | gust MPH | rain 1hr in | rain 24hr in | rain mn in | humidity % | barometer mb |
| 20260906101601 | 72 | 355 | 1.0 | 9.0 | 0.00 | 0.00 | 0.00 | 94 | 1013.5 |
| 20260906101500 | 72 | 355 | 1.0 | 9.0 | 0.00 | 0.00 | 0.00 | 94 | 1013.5 |
| 20260906101400 | 72 | 61 | 1.0 | 9.0 | 0.00 | 0.00 | 0.00 | 94 | 1013.4 |
| 20260906101303 | 72 | 84 | 1.0 | 7.0 | 0.00 | 0.00 | 0.00 | 94 | 1013.5 |
| 20260906101202 | 72 | 84 | 1.0 | 7.0 | 0.00 | 0.00 | 0.00 | 94 | 1013.4 |
| 20260906100900 | 72 | 19 | 0.0 | 7.0 | 0.00 | 0.00 | 0.00 | 94 | 1013.5 |
| 20260906100802 | 72 | 19 | 0.0 | 7.0 | 0.00 | 0.00 | 0.00 | 94 | 1013.5 |
| 20260906100600 | 72 | 63 | 1.0 | 7.0 | 0.00 | 0.00 | 0.00 | 94 | 1013.4 |
| 20260906100500 | 72 | 54 | 1.0 | 7.0 | 0.00 | 0.00 | 0.00 | 94 | 1013.5 |
| 20260906100403 | 72 | 49 | 0.0 | 7.0 | 0.00 | 0.00 | 0.00 | 94 | 1013.5 |
| 20260906100301 | 72 | 67 | 0.0 | 7.0 | 0.00 | 0.00 | 0.00 | 94 | 1013.4 |
| 20260906100200 | 72 | 57 | 0.0 | 7.0 | 0.00 | 0.00 | 0.00 | 94 | 1013.5 |
| 20260906100100 | 72 | 44 | 1.0 | 7.0 | 0.00 | 0.00 | 0.00 | 94 | 1013.5 |
| 20260906100006 | 72 | 44 | 1.0 | 7.0 | 0.00 | 0.00 | 0.00 | 94 | 1013.5 |
| 20260906095900 | 72 | 44 | 1.0 | 7.0 | 0.00 | 0.00 | 0.00 | 94 | 1013.5 |
| 20260906095702 | 72 | 5 | 1.0 | 7.0 | 0.00 | 0.00 | 0.00 | 95 | 1013.5 |
| 20260906095601 | 72 | 5 | 1.0 | 7.0 | 0.00 | 0.00 | 0.00 | 95 | 1013.4 |
| 20260906095500 | 72 | 52 | 1.0 | 7.0 | 0.00 | 0.00 | 0.00 | 95 | 1013.4 |
| 20260906095401 | 72 | 11 | 1.0 | 8.0 | 0.00 | 0.00 | 0.00 | 95 | 1013.4 |
| 20260906095305 | 72 | 51 | 1.0 | 8.0 | 0.00 | 0.00 | 0.00 | 94 | 1013.4 |
| 20260906095200 | 72 | 51 | 1.0 | 8.0 | 0.00 | 0.00 | 0.00 | 94 | 1013.3 |
| 20260906095100 | 72 | 53 | 1.0 | 8.0 | 0.00 | 0.00 | 0.00 | 95 | 1013.4 |
| 20260906095000 | 72 | 55 | 1.0 | 8.0 | 0.00 | 0.00 | 0.00 | 95 | 1013.4 |
| 20260906094800 | 72 | 73 | 1.0 | 8.0 | 0.00 | 0.00 | 0.00 | 95 | 1013.4 |
| 20260906094659 | 72 | 73 | 1.0 | 8.0 | 0.00 | 0.00 | 0.00 | 95 | 1013.4 |
| 20260906094601 | 72 | 348 | 0.0 | 8.0 | 0.00 | 0.00 | 0.00 | 95 | 1013.4 |
| 20260906094502 | 73 | 28 | 0.0 | 7.0 | 0.00 | 0.00 | 0.00 | 95 | 1013.4 |
| 20260906094401 | 73 | 61 | 0.0 | 6.0 | 0.00 | 0.00 | 0.00 | 95 | 1013.4 |
| 20260906094300 | 73 | 5 | 0.0 | 6.0 | 0.00 | 0.00 | 0.00 | 95 | 1013.4 |
| 20260906094200 | 73 | 103 | 0.0 | 6.0 | 0.00 | 0.00 | 0.00 | 95 | 1013.4 |
| 20260906094103 | 73 | 53 | 0.0 | 6.0 | 0.00 | 0.00 | 0.00 | 95 | 1013.3 |
| 20260906094000 | 73 | 53 | 0.0 | 5.0 | 0.00 | 0.00 | 0.00 | 95 | 1013.4 |
| 20260906093900 | 73 | 5 | 1.0 | 0.0 | 0.00 | 0.00 | 0.00 | 95 | 1013.4 |
| 20260906093759 | 73 | 5 | 1.0 | 4.0 | 0.00 | 0.00 | 0.00 | 95 | 1013.4 |
| 20260906093702 | 73 | 29 | 1.0 | 8.0 | 0.00 | 0.00 | 0.00 | 95 | 1013.4 |
| 20260906093600 | 73 | 28 | 1.0 | 8.0 | 0.00 | 0.00 | 0.00 | 95 | 1013.4 |
| 20260906093459 | 73 | 350 | 1.0 | 8.0 | 0.00 | 0.00 | 0.00 | 95 | 1013.4 |
| 20260906093359 | 73 | 350 | 1.0 | 8.0 | 0.00 | 0.00 | 0.00 | 95 | 1013.4 |
| 20260906093304 | 73 | 31 | 1.0 | 8.0 | 0.00 | 0.00 | 0.00 | 95 | 1013.4 |
| 20260906093200 | 73 | 31 | 1.0 | 8.0 | 0.00 | 0.00 | 0.00 | 95 | 1013.4 |
| 20260906093000 | 73 | 32 | 1.0 | 8.0 | 0.00 | 0.00 | 0.00 | 95 | 1013.4 |
| 20260906092902 | 73 | 17 | 0.0 | 9.0 | 0.00 | 0.00 | 0.00 | 95 | 1013.4 |
| 20260906092800 | 73 | 9 | 0.0 | 4.0 | 0.00 | 0.00 | 0.00 | 95 | 1013.4 |
| 20260906092700 | 73 | 72 | 0.0 | 3.0 | 0.00 | 0.00 | 0.00 | 95 | 1013.4 |
| 20260906092600 | 73 | 78 | 0.0 | 3.0 | 0.00 | 0.00 | 0.00 | 95 | 1013.4 |
| 20260906092400 | 73 | 78 | 0.0 | 3.0 | 0.00 | 0.00 | 0.00 | 95 | 1013.4 |
| 20260906092000 | 73 | 86 | 0.0 | 5.0 | 0.00 | 0.00 | 0.00 | 95 | 1013.3 |
| 20260906091900 | 73 | 86 | 0.0 | 5.0 | 0.00 | 0.00 | 0.00 | 95 | 1013.3 |
| 20260906091800 | 73 | 88 | 0.0 | 5.0 | 0.00 | 0.00 | 0.00 | 95 | 1013.3 |
| 20260906091701 | 73 | 88 | 0.0 | 5.0 | 0.00 | 0.00 | 0.00 | 95 | 1013.3 |
| 20260906091600 | 73 | 88 | 0.0 | 5.0 | 0.00 | 0.00 | 0.00 | 95 | 1013.3 |
| 20260906091500 | 73 | 88 | 1.0 | 5.0 | 0.00 | 0.00 | 0.00 | 95 | 1013.3 |
| 20260906091400 | 73 | 22 | 1.0 | 5.0 | 0.00 | 0.00 | 0.00 | 95 | 1013.3 |
| 20260906091301 | 73 | 20 | 1.0 | 5.0 | 0.00 | 0.00 | 0.00 | 95 | 1013.4 |
| 20260906091200 | 73 | 350 | 0.0 | 5.0 | 0.00 | 0.00 | 0.00 | 95 | 1013.3 |
| 20260906091100 | 73 | 38 | 0.0 | 5.0 | 0.00 | 0.00 | 0.00 | 95 | 1013.4 |
| 20260906091000 | 73 | 13 | 0.0 | 5.0 | 0.00 | 0.00 | 0.00 | 95 | 1013.3 |
| 20260906090902 | 73 | 13 | 0.0 | 5.0 | 0.00 | 0.00 | 0.00 | 95 | 1013.3 |
| 20260906090801 | 73 | 13 | 0.0 | 5.0 | 0.00 | 0.00 | 0.00 | 95 | 1013.3 |
| 20260906090659 | 73 | 12 | 0.0 | 5.0 | 0.00 | 0.00 | 0.00 | 95 | 1013.3 |
| 20260906090600 | 73 | 13 | 0.0 | 5.0 | 0.00 | 0.00 | 0.00 | 95 | 1013.3 |
| 20260906090502 | 73 | 77 | 0.0 | 3.0 | 0.00 | 0.00 | 0.00 | 95 | 1013.2 |
| 20260906090400 | 73 | 59 | 0.0 | 2.0 | 0.00 | 0.00 | 0.00 | 95 | 1013.2 |
| 20260906090302 | 73 | 59 | 0.0 | 2.0 | 0.00 | 0.00 | 0.00 | 95 | 1013.2 |
| 20260906090200 | 73 | 59 | 0.0 | 2.0 | 0.00 | 0.00 | 0.00 | 95 | 1013.3 |
| 20260906090003 | 73 | 19 | 0.0 | 3.0 | 0.00 | 0.00 | 0.00 | 95 | 1013.3 |
| 20260906085900 | 73 | 58 | 0.0 | 3.0 | 0.00 | 0.00 | 0.00 | 95 | 1013.2 |
| 20260906085802 | 73 | 53 | 0.0 | 3.0 | 0.00 | 0.00 | 0.00 | 95 | 1013.1 |
| 20260906085700 | 73 | 36 | 0.0 | 4.0 | 0.00 | 0.00 | 0.00 | 95 | 1013.1 |
| 20260906085500 | 73 | 36 | 0.0 | 4.0 | 0.00 | 0.00 | 0.00 | 95 | 1013.1 |
| 20260906085300 | 73 | 54 | 0.0 | 4.0 | 0.00 | 0.00 | 0.00 | 95 | 1013.2 |
| 20260906085100 | 73 | 49 | 0.0 | 4.0 | 0.00 | 0.00 | 0.00 | 95 | 1013.1 |
| 20260906085002 | 73 | 49 | 0.0 | 4.0 | 0.00 | 0.00 | 0.00 | 95 | 1013.0 |
| 20260906084900 | 73 | 49 | 0.0 | 4.0 | 0.00 | 0.00 | 0.00 | 95 | 1013.1 |
| 20260906084800 | 73 | 98 | 0.0 | 1.0 | 0.00 | 0.00 | 0.00 | 95 | 1013.1 |
| 20260906084700 | 73 | 98 | 0.0 | 1.0 | 0.00 | 0.00 | 0.00 | 95 | 1013.1 |
| 20260906084606 | 73 | 100 | 0.0 | 1.0 | 0.00 | 0.00 | 0.00 | 95 | 1013.1 |
| 20260906084400 | 73 | 102 | 0.0 | 1.0 | 0.00 | 0.00 | 0.00 | 95 | 1013.1 |
| 20260906084301 | 73 | 102 | 0.0 | 1.0 | 0.00 | 0.00 | 0.00 | 95 | 1013.0 |
| 20260906084200 | 73 | 104 | 0.0 | 4.0 | 0.00 | 0.00 | 0.00 | 95 | 1013.1 |
| 20260906084100 | 73 | 336 | 0.0 | 4.0 | 0.00 | 0.00 | 0.00 | 95 | 1012.9 |
| 20260906084000 | 73 | 336 | 0.0 | 4.0 | 0.00 | 0.00 | 0.00 | 95 | 1012.9 |
| 20260906083800 | 73 | 29 | 0.0 | 4.0 | 0.00 | 0.00 | 0.00 | 95 | 1012.9 |
| 20260906083600 | 73 | 23 | 0.0 | 4.0 | 0.00 | 0.00 | 0.00 | 95 | 1012.9 |
| 20260906083503 | 73 | 23 | 0.0 | 5.0 | 0.00 | 0.00 | 0.00 | 95 | 1012.9 |
| 20260906083400 | 73 | 355 | 0.0 | 5.0 | 0.00 | 0.00 | 0.00 | 95 | 1012.9 |
| 20260906083300 | 73 | 301 | 0.0 | 5.0 | 0.00 | 0.00 | 0.00 | 95 | 1012.9 |
| 20260906083200 | 73 | 58 | 0.0 | 5.0 | 0.00 | 0.00 | 0.00 | 95 | 1012.9 |
| 20260906082859 | 73 | 300 | 0.0 | 5.0 | 0.00 | 0.00 | 0.00 | 95 | 1012.8 |
| 20260906082759 | 73 | 300 | 0.0 | 5.0 | 0.00 | 0.00 | 0.00 | 95 | 1012.9 |
| 20260906082704 | 73 | 298 | 0.0 | 5.0 | 0.00 | 0.00 | 0.00 | 95 | 1012.9 |
| 20260906082600 | 73 | 44 | 0.0 | 6.0 | 0.00 | 0.00 | 0.00 | 95 | 1012.9 |
| 20260906082500 | 73 | 39 | 0.0 | 6.0 | 0.00 | 0.00 | 0.00 | 95 | 1012.9 |
| 20260906082400 | 73 | 85 | 0.0 | 6.0 | 0.00 | 0.00 | 0.00 | 95 | 1012.9 |
| 20260906082305 | 73 | 94 | 0.0 | 6.0 | 0.00 | 0.00 | 0.00 | 95 | 1012.8 |
| 20260906082200 | 73 | 94 | 0.0 | 6.0 | 0.00 | 0.00 | 0.00 | 95 | 1012.9 |
| 20260906082100 | 73 | 97 | 0.0 | 6.0 | 0.00 | 0.00 | 0.00 | 95 | 1012.8 |
| 20260906082000 | 73 | 97 | 0.0 | 6.0 | 0.00 | 0.00 | 0.00 | 95 | 1012.8 |
| 20260906081902 | 73 | 97 | 0.0 | 6.0 | 0.00 | 0.00 | 0.00 | 95 | 1013.0 |
| 20260906081800 | 73 | 5 | 0.0 | 5.0 | 0.00 | 0.00 | 0.00 | 95 | 1012.8 |
| 20260906081601 | 73 | 331 | 0.0 | 0.0 | 0.00 | 0.00 | 0.00 | 95 | 1012.8 |
| 20260906081503 | 73 | 331 | 0.0 | 7.0 | 0.00 | 0.00 | 0.00 | 95 | 1013.0 |
| 20260906081400 | 73 | 83 | 1.0 | 7.0 | 0.00 | 0.00 | 0.00 | 95 | 1012.8 |
| 20260906081300 | 73 | 83 | 1.0 | 7.0 | 0.00 | 0.00 | 0.00 | 95 | 1012.9 |
| 20260906081200 | 73 | 85 | 1.0 | 7.0 | 0.00 | 0.00 | 0.00 | 95 | 1012.9 |
| 20260906081102 | 73 | 85 | 1.0 | 7.0 | 0.00 | 0.00 | 0.00 | 95 | 1012.8 |
| 20260906081000 | 73 | 360 | 1.0 | 7.0 | 0.00 | 0.00 | 0.00 | 95 | 1012.8 |
| 20260906080900 | 73 | 27 | 1.0 | 7.0 | 0.00 | 0.00 | 0.00 | 95 | 1012.8 |
| 20260906080800 | 73 | 27 | 1.0 | 7.0 | 0.00 | 0.00 | 0.00 | 95 | 1012.8 |
| 20260906080702 | 73 | 27 | 1.0 | 8.0 | 0.00 | 0.00 | 0.00 | 95 | 1012.8 |
| 20260906080500 | 73 | 24 | 1.0 | 8.0 | 0.00 | 0.00 | 0.00 | 95 | 1012.8 |
| 20260906080359 | 73 | 24 | 1.0 | 8.0 | 0.00 | 0.00 | 0.00 | 95 | 1012.8 |
| 20260906080304 | 73 | 47 | 1.0 | 7.0 | 0.00 | 0.00 | 0.00 | 95 | 1012.8 |
| 20260906080100 | 73 | 101 | 1.0 | 7.0 | 0.00 | 0.00 | 0.00 | 95 | 1012.9 |
| 20260906075902 | 73 | 51 | 1.0 | 7.0 | 0.00 | 0.00 | 0.00 | 95 | 1012.8 |
| 20260906075800 | 73 | 80 | 1.0 | 7.0 | 0.00 | 0.00 | 0.00 | 95 | 1012.9 |
| 20260906075700 | 73 | 27 | 1.0 | 7.0 | 0.00 | 0.00 | 0.00 | 95 | 1012.8 |
| 20260906075600 | 73 | 12 | 1.0 | 8.0 | 0.00 | 0.00 | 0.00 | 95 | 1012.9 |
| 20260906075503 | 73 | 84 | 0.0 | 8.0 | 0.00 | 0.00 | 0.00 | 95 | 1012.9 |
| 20260906075400 | 73 | 92 | 0.0 | 8.0 | 0.00 | 0.00 | 0.00 | 95 | 1012.8 |
| 20260906075301 | 73 | 92 | 0.0 | 8.0 | 0.00 | 0.00 | 0.00 | 95 | 1012.9 |
| 20260906075200 | 73 | 35 | 0.0 | 0.0 | 0.00 | 0.00 | 0.00 | 95 | 1012.8 |
| 20260906075000 | 73 | 24 | 0.0 | 0.0 | 0.00 | 0.00 | 0.00 | 95 | 1012.7 |
| 20260906074900 | 73 | 348 | 0.0 | 0.0 | 0.00 | 0.00 | 0.00 | 95 | 1012.8 |
| 20260906074702 | 73 | 348 | 0.0 | 0.0 | 0.00 | 0.00 | 0.00 | 95 | 1012.7 |
| 20260906074559 | 73 | 13 | 0.0 | 0.0 | 0.00 | 0.00 | 0.00 | 95 | 1012.7 |
| 20260906074500 | 73 | 36 | 0.0 | 0.0 | 0.00 | 0.00 | 0.00 | 95 | 1012.8 |
| 20260906074359 | 73 | 34 | 0.0 | 0.0 | 0.00 | 0.00 | 0.00 | 95 | 1012.8 |
| 20260906074302 | 73 | 34 | 0.0 | 0.0 | 0.00 | 0.00 | 0.00 | 95 | 1012.7 |
| 20260906074200 | 73 | 34 | 0.0 | 0.0 | 0.00 | 0.00 | 0.00 | 95 | 1012.8 |
| 20260906074100 | 73 | 350 | 0.0 | 0.0 | 0.00 | 0.00 | 0.00 | 95 | 1012.8 |
| 20260906074000 | 73 | 355 | 0.0 | 0.0 | 0.00 | 0.00 | 0.00 | 95 | 1012.8 |
| 20260906073800 | 73 | 355 | 0.0 | 0.0 | 0.00 | 0.00 | 0.00 | 95 | 1012.7 |
| 20260906073559 | 73 | 337 | 0.0 | 0.0 | 0.00 | 0.00 | 0.00 | 95 | 1012.7 |
| 20260906073503 | 73 | 69 | 0.0 | 0.0 | 0.00 | 0.00 | 0.00 | 95 | 1012.7 |
| 20260906073400 | 73 | 69 | 0.0 | 0.0 | 0.00 | 0.00 | 0.00 | 95 | 1012.7 |
| 20260906073300 | 73 | 69 | 0.0 | 0.0 | 0.00 | 0.00 | 0.00 | 95 | 1012.7 |
| 20260906073200 | 73 | 70 | 0.0 | 0.0 | 0.00 | 0.00 | 0.00 | 95 | 1012.8 |
| 20260906073103 | 73 | 71 | 0.0 | 0.0 | 0.00 | 0.00 | 0.00 | 95 | 1012.8 |
| 20260906073000 | 73 | 71 | 0.0 | 0.0 | 0.00 | 0.00 | 0.00 | 95 | 1012.8 |
| 20260906072901 | 73 | 74 | 0.0 | 0.0 | 0.00 | 0.00 | 0.00 | 95 | 1012.8 |
| 20260906072800 | 73 | 74 | 0.0 | 0.0 | 0.00 | 0.00 | 0.00 | 95 | 1012.8 |
| 20260906072601 | 73 | 83 | 0.0 | 0.0 | 0.00 | 0.00 | 0.00 | 95 | 1012.8 |
| 20260906072500 | 73 | 83 | 0.0 | 0.0 | 0.00 | 0.00 | 0.00 | 95 | 1012.8 |
| 20260906072400 | 73 | 83 | 0.0 | 0.0 | 0.00 | 0.00 | 0.00 | 95 | 1012.9 |
| 20260906072301 | 73 | 83 | 0.0 | 0.0 | 0.00 | 0.00 | 0.00 | 95 | 1012.9 |
| 20260906072159 | 73 | 83 | 0.0 | 1.0 | 0.00 | 0.00 | 0.00 | 95 | 1012.8 |
| 20260906072100 | 73 | 83 | 0.0 | 1.0 | 0.00 | 0.00 | 0.00 | 95 | 1012.8 |
| 20260906072000 | 73 | 85 | 0.0 | 1.0 | 0.00 | 0.00 | 0.00 | 95 | 1012.8 |
| 20260906071903 | 73 | 62 | 0.0 | 1.0 | 0.00 | 0.00 | 0.00 | 95 | 1012.8 |
| 20260906071800 | 73 | 62 | 0.0 | 1.0 | 0.00 | 0.00 | 0.00 | 95 | 1012.9 |
| 20260906071600 | 73 | 13 | 0.0 | 1.0 | 0.00 | 0.00 | 0.00 | 95 | 1013.0 |
| 20260906071503 | 74 | 342 | 0.0 | 1.0 | 0.00 | 0.00 | 0.00 | 95 | 1012.9 |
| 20260906071400 | 74 | 35 | 0.0 | 1.0 | 0.00 | 0.00 | 0.00 | 95 | 1013.0 |
| 20260906071103 | 74 | 16 | 0.0 | 4.0 | 0.00 | 0.00 | 0.00 | 94 | 1013.0 |
| 20260906071000 | 74 | 344 | 0.0 | 4.0 | 0.00 | 0.00 | 0.00 | 94 | 1013.0 |
| 20260906070759 | 74 | 41 | 0.0 | 4.0 | 0.00 | 0.00 | 0.00 | 94 | 1012.9 |
| 20260906070600 | 74 | 51 | 0.0 | 4.0 | 0.00 | 0.00 | 0.00 | 94 | 1013.1 |
| 20260906070500 | 74 | 50 | 0.0 | 4.0 | 0.00 | 0.00 | 0.00 | 94 | 1013.0 |
| 20260906070359 | 74 | 50 | 0.0 | 4.0 | 0.00 | 0.00 | 0.00 | 94 | 1013.1 |
| 20260906070302 | 74 | 50 | 0.0 | 4.0 | 0.00 | 0.00 | 0.00 | 94 | 1013.0 |
| 20260906070100 | 74 | 42 | 0.0 | 4.0 | 0.00 | 0.00 | 0.00 | 94 | 1013.1 |
| 20260906070004 | 74 | 42 | 0.0 | 4.0 | 0.00 | 0.00 | 0.00 | 94 | 1013.1 |
| 20260906065903 | 74 | 42 | 0.0 | 4.0 | 0.00 | 0.00 | 0.00 | 94 | 1013.1 |
| 20260906065800 | 74 | 42 | 0.0 | 4.0 | 0.00 | 0.00 | 0.00 | 94 | 1013.1 |
| 20260906065700 | 74 | 76 | 0.0 | 0.0 | 0.00 | 0.00 | 0.00 | 94 | 1013.1 |
| 20260906065559 | 74 | 76 | 0.0 | 0.0 | 0.00 | 0.00 | 0.00 | 94 | 1013.1 |
| 20260906065501 | 74 | 76 | 0.0 | 0.0 | 0.00 | 0.00 | 0.00 | 94 | 1013.1 |
| 20260906065300 | 74 | 77 | 0.0 | 3.0 | 0.00 | 0.00 | 0.00 | 94 | 1013.1 |
| 20260906065200 | 74 | 77 | 0.0 | 3.0 | 0.00 | 0.00 | 0.00 | 94 | 1013.1 |
| 20260906065101 | 74 | 77 | 0.0 | 3.0 | 0.00 | 0.00 | 0.00 | 94 | 1013.1 |
| 20260906065000 | 74 | 76 | 0.0 | 3.0 | 0.00 | 0.00 | 0.00 | 94 | 1013.0 |
| 20260906064900 | 74 | 72 | 0.0 | 3.0 | 0.00 | 0.00 | 0.00 | 94 | 1013.0 |
| 20260906064800 | 74 | 72 | 0.0 | 3.0 | 0.00 | 0.00 | 0.00 | 94 | 1013.0 |
| 20260906064702 | 74 | 72 | 0.0 | 3.0 | 0.00 | 0.00 | 0.00 | 94 | 1013.0 |
| 20260906064601 | 74 | 72 | 0.0 | 3.0 | 0.00 | 0.00 | 0.00 | 94 | 1012.9 |
| 20260906064400 | 74 | 90 | 0.0 | 0.0 | 0.00 | 0.00 | 0.00 | 94 | 1013.0 |
| 20260906064302 | 74 | 90 | 0.0 | 0.0 | 0.00 | 0.00 | 0.00 | 94 | 1013.0 |
| 20260906064200 | 74 | 90 | 0.0 | 0.0 | 0.00 | 0.00 | 0.00 | 94 | 1013.0 |
| 20260906064100 | 74 | 90 | 0.0 | 0.0 | 0.00 | 0.00 | 0.00 | 94 | 1013.0 |
| 20260906063959 | 74 | 90 | 0.0 | 6.0 | 0.00 | 0.00 | 0.00 | 94 | 1013.0 |
| 20260906063902 | 74 | 95 | 0.0 | 8.0 | 0.00 | 0.00 | 0.00 | 94 | 1013.0 |
| 20260906063800 | 74 | 45 | 0.0 | 8.0 | 0.00 | 0.00 | 0.00 | 94 | 1013.0 |
| 20260906063700 | 74 | 47 | 0.0 | 8.0 | 0.00 | 0.00 | 0.00 | 94 | 1012.9 |
| 20260906063600 | 74 | 46 | 0.0 | 8.0 | 0.00 | 0.00 | 0.00 | 94 | 1013.0 |
| 20260906063503 | 74 | 46 | 0.0 | 8.0 | 0.00 | 0.00 | 0.00 | 94 | 1012.9 |
| 20260906063400 | 74 | 46 | 0.0 | 8.0 | 0.00 | 0.00 | 0.00 | 94 | 1013.0 |
| 20260906063300 | 74 | 43 | 0.0 | 8.0 | 0.00 | 0.00 | 0.00 | 94 | 1012.9 |
| 20260906063201 | 74 | 117 | 0.0 | 8.0 | 0.00 | 0.00 | 0.00 | 94 | 1012.9 |
| 20260906063106 | 74 | 56 | 0.0 | 4.0 | 0.00 | 0.00 | 0.00 | 94 | 1012.9 |
| 20260906063000 | 74 | 45 | 0.0 | 4.0 | 0.00 | 0.00 | 0.00 | 94 | 1012.8 |
| 20260906062900 | 74 | 55 | 0.0 | 0.0 | 0.00 | 0.00 | 0.00 | 94 | 1012.9 |
| 20260906062800 | 74 | 28 | 0.0 | 0.0 | 0.00 | 0.00 | 0.00 | 94 | 1012.9 |
| 20260906062600 | 74 | 28 | 0.0 | 0.0 | 0.00 | 0.00 | 0.00 | 94 | 1012.9 |
| 20260906062305 | 74 | 13 | 0.0 | 0.0 | 0.00 | 0.00 | 0.00 | 94 | 1012.9 |
| 20260906062201 | 74 | 36 | 0.0 | 0.0 | 0.00 | 0.00 | 0.00 | 93 | 1013.0 |
| 20260906062100 | 74 | 36 | 0.0 | 0.0 | 0.00 | 0.00 | 0.00 | 93 | 1013.1 |
| 20260906062000 | 74 | 36 | 0.0 | 0.0 | 0.00 | 0.00 | 0.00 | 93 | 1013.1 |
| 20260906061903 | 74 | 36 | 0.0 | 0.0 | 0.00 | 0.00 | 0.00 | 93 | 1013.1 |
| 20260906061800 | 74 | 36 | 0.0 | 1.0 | 0.00 | 0.00 | 0.00 | 93 | 1013.1 |
| 20260906061702 | 74 | 36 | 0.0 | 1.0 | 0.00 | 0.00 | 0.00 | 93 | 1013.1 |
| 20260906061600 | 74 | 36 | 0.0 | 1.0 | 0.00 | 0.00 | 0.00 | 93 | 1013.0 |
| 20260906061400 | 74 | 36 | 0.0 | 1.0 | 0.00 | 0.00 | 0.00 | 93 | 1013.2 |
| 20260906061103 | 74 | 36 | 0.0 | 1.0 | 0.00 | 0.00 | 0.00 | 93 | 1013.2 |
| 20260906060959 | 74 | 36 | 0.0 | 1.0 | 0.00 | 0.00 | 0.00 | 93 | 1013.2 |
| 20260906060900 | 74 | 18 | 0.0 | 0.0 | 0.00 | 0.00 | 0.00 | 93 | 1013.3 |
| 20260906060759 | 74 | 18 | 0.0 | 0.0 | 0.00 | 0.00 | 0.00 | 93 | 1013.2 |
| 20260906060702 | 74 | 329 | 0.0 | 0.0 | 0.00 | 0.00 | 0.00 | 93 | 1013.2 |
| 20260906060600 | 74 | 329 | 0.0 | 0.0 | 0.00 | 0.00 | 0.00 | 93 | 1013.2 |
| 20260906060301 | 74 | 329 | 0.0 | 0.0 | 0.00 | 0.00 | 0.00 | 93 | 1013.2 |
| 20260906060159 | 74 | 330 | 0.0 | 0.0 | 0.00 | 0.00 | 0.00 | 93 | 1013.3 |
| 20260906060100 | 74 | 330 | 0.0 | 0.0 | 0.00 | 0.00 | 0.00 | 93 | 1013.3 |
| 20260906060002 | 74 | 330 | 0.0 | 0.0 | 0.00 | 0.00 | 0.00 | 93 | 1013.1 |
| 20260906055901 | 74 | 9 | 0.0 | 0.0 | 0.00 | 0.00 | 0.00 | 92 | 1013.2 |
| 20260906055800 | 74 | 9 | 0.0 | 0.0 | 0.00 | 0.00 | 0.00 | 92 | 1013.2 |
| 20260906055659 | 75 | 9 | 0.0 | 0.0 | 0.00 | 0.00 | 0.00 | 92 | 1013.2 |
| 20260906055601 | 75 | 9 | 0.0 | 0.0 | 0.00 | 0.00 | 0.00 | 92 | 1013.1 |
| 20260906055502 | 75 | 9 | 0.0 | 0.0 | 0.00 | 0.00 | 0.00 | 92 | 1013.2 |
| 20260906055301 | 75 | 9 | 0.0 | 0.0 | 0.00 | 0.00 | 0.00 | 92 | 1013.2 |
| 20260906055102 | 75 | 9 | 0.0 | 0.0 | 0.00 | 0.00 | 0.00 | 92 | 1013.0 |
| 20260906054800 | 75 | 9 | 0.0 | 0.0 | 0.00 | 0.00 | 0.00 | 92 | 1013.0 |
| 20260906054702 | 75 | 9 | 0.0 | 0.0 | 0.00 | 0.00 | 0.00 | 92 | 1013.0 |
| 20260906054601 | 75 | 9 | 0.0 | 0.0 | 0.00 | 0.00 | 0.00 | 92 | 1013.0 |
| 20260906054500 | 75 | 321 | 0.0 | 0.0 | 0.00 | 0.00 | 0.00 | 92 | 1013.0 |
| 20260906054400 | 75 | 321 | 0.0 | 0.0 | 0.00 | 0.00 | 0.00 | 92 | 1013.0 |
| 20260906054303 | 75 | 321 | 0.0 | 0.0 | 0.00 | 0.00 | 0.00 | 92 | 1012.9 |
| 20260906054100 | 75 | 321 | 0.0 | 0.0 | 0.00 | 0.00 | 0.00 | 92 | 1012.9 |
| 20260906053904 | 75 | 321 | 0.0 | 0.0 | 0.00 | 0.00 | 0.00 | 92 | 1012.9 |
| 20260906053700 | 75 | 321 | 0.0 | 0.0 | 0.00 | 0.00 | 0.00 | 92 | 1012.9 |
| 20260906053600 | 75 | 321 | 0.0 | 0.0 | 0.00 | 0.00 | 0.00 | 92 | 1013.0 |
| 20260906053502 | 75 | 321 | 0.0 | 0.0 | 0.00 | 0.00 | 0.00 | 91 | 1012.9 |
| 20260906053400 | 75 | 317 | 0.0 | 0.0 | 0.00 | 0.00 | 0.00 | 91 | 1012.9 |
| 20260906053200 | 75 | 317 | 0.0 | 0.0 | 0.00 | 0.00 | 0.00 | 92 | 1013.0 |
| 20260906053104 | 75 | 317 | 0.0 | 0.0 | 0.00 | 0.00 | 0.00 | 92 | 1012.9 |
| 20260906053000 | 75 | 317 | 0.0 | 0.0 | 0.00 | 0.00 | 0.00 | 91 | 1012.9 |
| 20260906052859 | 75 | 317 | 0.0 | 0.0 | 0.00 | 0.00 | 0.00 | 91 | 1013.0 |
| 20260906052800 | 75 | 317 | 0.0 | 0.0 | 0.00 | 0.00 | 0.00 | 91 | 1013.0 |
| 20260906052702 | 75 | 317 | 0.0 | 0.0 | 0.00 | 0.00 | 0.00 | 91 | 1013.0 |
| 20260906052600 | 75 | 317 | 0.0 | 0.0 | 0.00 | 0.00 | 0.00 | 91 | 1013.0 |
| 20260906052500 | 75 | 317 | 0.0 | 0.0 | 0.00 | 0.00 | 0.00 | 91 | 1012.9 |
| 20260906052400 | 75 | 317 | 0.0 | 0.0 | 0.00 | 0.00 | 0.00 | 91 | 1012.9 |
| 20260906052305 | 75 | 317 | 0.0 | 0.0 | 0.00 | 0.00 | 0.00 | 91 | 1012.9 |
| 20260906052200 | 75 | 317 | 0.0 | 0.0 | 0.00 | 0.00 | 0.00 | 91 | 1012.8 |
| 20260906052100 | 75 | 317 | 0.0 | 0.0 | 0.00 | 0.00 | 0.00 | 91 | 1012.9 |
| 20260906052000 | 76 | 317 | 0.0 | 0.0 | 0.00 | 0.00 | 0.00 | 91 | 1012.9 |
| 20260906051903 | 76 | 317 | 0.0 | 0.0 | 0.00 | 0.00 | 0.00 | 91 | 1013.0 |
| 20260906051800 | 76 | 317 | 0.0 | 0.0 | 0.00 | 0.00 | 0.00 | 91 | 1012.9 |
| 20260906051700 | 76 | 317 | 0.0 | 0.0 | 0.00 | 0.00 | 0.00 | 91 | 1013.0 |
| 20260906051601 | 76 | 317 | 0.0 | 0.0 | 0.00 | 0.00 | 0.00 | 91 | 1012.9 |
| 20260906051504 | 76 | 317 | 0.0 | 0.0 | 0.00 | 0.00 | 0.00 | 91 | 1013.0 |
| 20260906051359 | 76 | 317 | 0.0 | 0.0 | 0.00 | 0.00 | 0.00 | 91 | 1013.0 |
| 20260906051201 | 76 | 317 | 0.0 | 0.0 | 0.00 | 0.00 | 0.00 | 91 | 1013.1 |
| 20260906051059 | 76 | 317 | 0.0 | 0.0 | 0.00 | 0.00 | 0.00 | 91 | 1013.1 |
| 20260906050959 | 76 | 317 | 0.0 | 0.0 | 0.00 | 0.00 | 0.00 | 91 | 1013.1 |
| 20260906050859 | 76 | 317 | 0.0 | 0.0 | 0.00 | 0.00 | 0.00 | 91 | 1013.1 |
| 20260906050801 | 76 | 317 | 0.0 | 0.0 | 0.00 | 0.00 | 0.00 | 91 | 1013.1 |
| 20260906050659 | 76 | 317 | 0.0 | 0.0 | 0.00 | 0.00 | 0.00 | 91 | 1013.1 |
| 20260906050559 | 76 | 317 | 0.0 | 0.0 | 0.00 | 0.00 | 0.00 | 91 | 1013.0 |
| 20260906050459 | 76 | 317 | 0.0 | 0.0 | 0.00 | 0.00 | 0.00 | 91 | 1013.0 |
| 20260906050259 | 76 | 317 | 0.0 | 0.0 | 0.00 | 0.00 | 0.00 | 91 | 1012.9 |
| 20260906050159 | 76 | 317 | 0.0 | 0.0 | 0.00 | 0.00 | 0.00 | 91 | 1012.9 |
| 20260906050005 | 76 | 317 | 0.0 | 0.0 | 0.00 | 0.00 | 0.00 | 90 | 1012.9 |
| 20260906045900 | 76 | 317 | 0.0 | 0.0 | 0.00 | 0.00 | 0.00 | 90 | 1012.8 |
| 20260906045801 | 76 | 317 | 0.0 | 0.0 | 0.00 | 0.00 | 0.00 | 90 | 1012.9 |
| 20260906045701 | 76 | 317 | 0.0 | 0.0 | 0.00 | 0.00 | 0.00 | 90 | 1012.8 |
| 20260906045603 | 76 | 317 | 0.0 | 0.0 | 0.00 | 0.00 | 0.00 | 90 | 1012.9 |
| 20260906045500 | 76 | 317 | 0.0 | 0.0 | 0.00 | 0.00 | 0.00 | 90 | 1012.8 |
| 20260906045301 | 76 | 317 | 0.0 | 0.0 | 0.00 | 0.00 | 0.00 | 90 | 1012.9 |
| 20260906045203 | 76 | 317 | 0.0 | 0.0 | 0.00 | 0.00 | 0.00 | 90 | 1012.8 |
| 20260906045101 | 76 | 317 | 0.0 | 0.0 | 0.00 | 0.00 | 0.00 | 90 | 1012.8 |
| 20260906045001 | 77 | 317 | 0.0 | 0.0 | 0.00 | 0.00 | 0.00 | 90 | 1012.8 |
| 20260906044901 | 77 | 317 | 0.0 | 0.0 | 0.00 | 0.00 | 0.00 | 90 | 1012.7 |
| 20260906044804 | 77 | 317 | 0.0 | 0.0 | 0.00 | 0.00 | 0.00 | 90 | 1012.7 |
| 20260906044501 | 77 | 316 | 0.0 | 0.0 | 0.00 | 0.00 | 0.00 | 90 | 1012.6 |
| 20260906044404 | 77 | 316 | 0.0 | 0.0 | 0.00 | 0.00 | 0.00 | 90 | 1012.5 |
| 20260906044201 | 77 | 348 | 0.0 | 0.0 | 0.00 | 0.00 | 0.00 | 90 | 1012.6 |
| 20260906043901 | 77 | 348 | 0.0 | 0.0 | 0.00 | 0.00 | 0.00 | 90 | 1012.5 |
| 20260906043802 | 77 | 348 | 0.0 | 0.0 | 0.00 | 0.00 | 0.00 | 90 | 1012.5 |
| 20260906043701 | 77 | 348 | 0.0 | 0.0 | 0.00 | 0.00 | 0.00 | 90 | 1012.5 |
| 20260906043603 | 77 | 348 | 0.0 | 0.0 | 0.00 | 0.00 | 0.00 | 90 | 1012.5 |
| 20260906043501 | 77 | 348 | 0.0 | 0.0 | 0.00 | 0.00 | 0.00 | 90 | 1012.5 |
| 20260906043301 | 77 | 348 | 0.0 | 0.0 | 0.00 | 0.00 | 0.00 | 90 | 1012.5 |
| 20260906043204 | 77 | 348 | 0.0 | 0.0 | 0.00 | 0.00 | 0.00 | 90 | 1012.5 |
| 20260906043001 | 77 | 348 | 0.0 | 0.0 | 0.00 | 0.00 | 0.00 | 90 | 1012.5 |
| 20260906042804 | 77 | 348 | 0.0 | 0.0 | 0.00 | 0.00 | 0.00 | 90 | 1012.5 |
| 20260906042701 | 77 | 348 | 0.0 | 0.0 | 0.00 | 0.00 | 0.00 | 90 | 1012.5 |
| 20260906042601 | 77 | 348 | 0.0 | 2.0 | 0.00 | 0.00 | 0.00 | 90 | 1012.5 |
| 20260906042501 | 77 | 348 | 0.0 | 2.0 | 0.00 | 0.00 | 0.00 | 90 | 1012.5 |
| 20260906042301 | 77 | 348 | 0.0 | 2.0 | 0.00 | 0.00 | 0.00 | 90 | 1012.5 |
| 20260906042201 | 78 | 348 | 0.0 | 2.0 | 0.00 | 0.00 | 0.00 | 90 | 1012.5 |
| 20260906041902 | 78 | 348 | 0.0 | 2.0 | 0.00 | 0.00 | 0.00 | 90 | 1012.5 |
| 20260906041801 | 78 | 348 | 0.0 | 2.0 | 0.00 | 0.00 | 0.00 | 90 | 1012.4 |
| 20260906041604 | 78 | 30 | 0.0 | 0.0 | 0.00 | 0.00 | 0.00 | 90 | 1012.5 |
| 20260906041501 | 78 | 323 | 0.0 | 0.0 | 0.00 | 0.00 | 0.00 | 90 | 1012.5 |
| 20260906041401 | 78 | 323 | 0.0 | 0.0 | 0.00 | 0.00 | 0.00 | 90 | 1012.5 |
| 20260906041302 | 78 | 322 | 0.0 | 0.0 | 0.00 | 0.00 | 0.00 | 90 | 1012.5 |
| 20260906041101 | 78 | 322 | 0.0 | 0.0 | 0.00 | 0.00 | 0.00 | 89 | 1012.5 |
| 20260906041001 | 78 | 322 | 0.0 | 0.0 | 0.00 | 0.00 | 0.00 | 89 | 1012.5 |
| 20260906040902 | 78 | 324 | 0.0 | 0.0 | 0.00 | 0.00 | 0.00 | 89 | 1012.5 |
| 20260906040803 | 78 | 324 | 0.0 | 0.0 | 0.00 | 0.00 | 0.00 | 89 | 1012.4 |
| 20260906040701 | 78 | 324 | 0.0 | 0.0 | 0.00 | 0.00 | 0.00 | 89 | 1012.4 |
| 20260906040601 | 78 | 350 | 0.0 | 4.0 | 0.00 | 0.00 | 0.00 | 89 | 1012.5 |
| 20260906040502 | 78 | 350 | 0.0 | 4.0 | 0.00 | 0.00 | 0.00 | 89 | 1012.5 |
| 20260906040301 | 78 | 67 | 0.0 | 4.0 | 0.00 | 0.00 | 0.00 | 89 | 1012.5 |
| 20260906040201 | 78 | 67 | 0.0 | 4.0 | 0.00 | 0.00 | 0.00 | 89 | 1012.5 |
| 20260906040008 | 78 | 67 | 0.0 | 4.0 | 0.00 | 0.00 | 0.00 | 89 | 1012.5 |
| 20260906035802 | 78 | 71 | 0.0 | 4.0 | 0.00 | 0.00 | 0.00 | 89 | 1012.5 |
| 20260906035704 | 78 | 71 | 0.0 | 4.0 | 0.00 | 0.00 | 0.00 | 89 | 1012.5 |
| 20260906035501 | 78 | 355 | 0.0 | 0.0 | 0.00 | 0.00 | 0.00 | 89 | 1012.6 |
| 20260906035401 | 78 | 355 | 0.0 | 0.0 | 0.00 | 0.00 | 0.00 | 89 | 1012.5 |
| 20260906035306 | 78 | 323 | 0.0 | 0.0 | 0.00 | 0.00 | 0.00 | 89 | 1012.5 |
| 20260906035201 | 78 | 323 | 0.0 | 0.0 | 0.00 | 0.00 | 0.00 | 89 | 1012.6 |
| 20260906035102 | 78 | 321 | 0.0 | 0.0 | 0.00 | 0.00 | 0.00 | 89 | 1012.6 |
| 20260906035001 | 78 | 321 | 0.0 | 3.0 | 0.00 | 0.00 | 0.00 | 89 | 1012.5 |
| 20260906034903 | 79 | 321 | 0.0 | 3.0 | 0.00 | 0.00 | 0.00 | 89 | 1012.5 |
| 20260906034801 | 79 | 321 | 0.0 | 3.0 | 0.00 | 0.00 | 0.00 | 89 | 1012.5 |
| 20260906034701 | 79 | 321 | 0.0 | 3.0 | 0.00 | 0.00 | 0.00 | 89 | 1012.5 |
| 20260906034504 | 79 | 321 | 0.0 | 3.0 | 0.00 | 0.00 | 0.00 | 89 | 1012.4 |
| 20260906034402 | 79 | 321 | 0.0 | 3.0 | 0.00 | 0.00 | 0.00 | 89 | 1012.5 |
| 20260906034202 | 79 | 321 | 0.0 | 3.0 | 0.00 | 0.00 | 0.00 | 89 | 1012.5 |
| 20260906034001 | 79 | 321 | 0.0 | 0.0 | 0.00 | 0.00 | 0.00 | 88 | 1012.5 |
| 20260906033901 | 79 | 321 | 0.0 | 0.0 | 0.00 | 0.00 | 0.00 | 88 | 1012.5 |
| 20260906033804 | 79 | 329 | 0.0 | 0.0 | 0.00 | 0.00 | 0.00 | 88 | 1012.5 |
| 20260906033601 | 79 | 329 | 0.0 | 0.0 | 0.00 | 0.00 | 0.00 | 88 | 1012.5 |
| 20260906033501 | 79 | 329 | 0.0 | 0.0 | 0.00 | 0.00 | 0.00 | 88 | 1012.5 |
| 20260906033404 | 79 | 329 | 0.0 | 0.0 | 0.00 | 0.00 | 0.00 | 88 | 1012.5 |
| 20260906033301 | 79 | 323 | 0.0 | 0.0 | 0.00 | 0.00 | 0.00 | 88 | 1012.5 |
| 20260906033201 | 79 | 323 | 0.0 | 0.0 | 0.00 | 0.00 | 0.00 | 88 | 1012.5 |
| 20260906033102 | 79 | 323 | 0.0 | 0.0 | 0.00 | 0.00 | 0.00 | 88 | 1012.6 |
| 20260906033003 | 79 | 323 | 0.0 | 0.0 | 0.00 | 0.00 | 0.00 | 88 | 1012.5 |
| 20260906032901 | 79 | 323 | 0.0 | 0.0 | 0.00 | 0.00 | 0.00 | 88 | 1012.4 |
| 20260906032801 | 79 | 323 | 0.0 | 0.0 | 0.00 | 0.00 | 0.00 | 88 | 1012.4 |
| 20260906032702 | 79 | 323 | 0.0 | 0.0 | 0.00 | 0.00 | 0.00 | 88 | 1012.4 |
| 20260906032603 | 79 | 323 | 0.0 | 0.0 | 0.00 | 0.00 | 0.00 | 88 | 1012.3 |
| 20260906032501 | 79 | 323 | 0.0 | 0.0 | 0.00 | 0.00 | 0.00 | 88 | 1012.4 |
| 20260906032401 | 79 | 323 | 0.0 | 0.0 | 0.00 | 0.00 | 0.00 | 87 | 1012.4 |
| 20260906032301 | 79 | 318 | 0.0 | 0.0 | 0.00 | 0.00 | 0.00 | 87 | 1012.4 |
| 20260906032204 | 79 | 318 | 0.0 | 4.0 | 0.00 | 0.00 | 0.00 | 87 | 1012.4 |
| 20260906032101 | 79 | 336 | 0.0 | 4.0 | 0.00 | 0.00 | 0.00 | 87 | 1012.4 |
| 20260906031901 | 79 | 336 | 0.0 | 4.0 | 0.00 | 0.00 | 0.00 | 87 | 1012.4 |
| 20260906031803 | 79 | 336 | 0.0 | 4.0 | 0.00 | 0.00 | 0.00 | 87 | 1012.4 |
| 20260906031702 | 79 | 336 | 0.0 | 4.0 | 0.00 | 0.00 | 0.00 | 87 | 1012.4 |
| 20260906031601 | 79 | 360 | 0.0 | 4.0 | 0.00 | 0.00 | 0.00 | 87 | 1012.4 |
| 20260906031501 | 79 | 360 | 0.0 | 4.0 | 0.00 | 0.00 | 0.00 | 87 | 1012.3 |
| 20260906031403 | 79 | 360 | 0.0 | 4.0 | 0.00 | 0.00 | 0.00 | 87 | 1012.4 |
| 20260906031301 | 80 | 5 | 0.0 | 1.0 | 0.00 | 0.00 | 0.00 | 87 | 1012.3 |
| 20260906031101 | 80 | 5 | 0.0 | 1.0 | 0.00 | 0.00 | 0.00 | 87 | 1012.3 |
| 20260906031003 | 80 | 5 | 0.0 | 1.0 | 0.00 | 0.00 | 0.00 | 87 | 1012.4 |
| 20260906030901 | 80 | 5 | 0.0 | 1.0 | 0.00 | 0.00 | 0.00 | 87 | 1012.3 |
| 20260906030603 | 80 | 332 | 0.0 | 1.0 | 0.00 | 0.00 | 0.00 | 87 | 1012.4 |
| 20260906030501 | 80 | 52 | 0.0 | 0.0 | 0.00 | 0.00 | 0.00 | 86 | 1012.3 |
| 20260906030401 | 80 | 52 | 0.0 | 0.0 | 0.00 | 0.00 | 0.00 | 86 | 1012.3 |
| 20260906030003 | 80 | 52 | 0.0 | 0.0 | 0.00 | 0.00 | 0.00 | 86 | 1012.3 |
| 20260906025903 | 80 | 52 | 0.0 | 0.0 | 0.00 | 0.00 | 0.00 | 86 | 1012.2 |
| 20260906025802 | 80 | 52 | 0.0 | 0.0 | 0.00 | 0.00 | 0.00 | 86 | 1012.2 |
| 20260906025702 | 80 | 52 | 0.0 | 0.0 | 0.00 | 0.00 | 0.00 | 86 | 1012.2 |
| 20260906025602 | 80 | 52 | 0.0 | 0.0 | 0.00 | 0.00 | 0.00 | 86 | 1012.3 |
| 20260906025503 | 80 | 52 | 0.0 | 0.0 | 0.00 | 0.00 | 0.00 | 86 | 1012.2 |
| 20260906025201 | 80 | 52 | 0.0 | 0.0 | 0.00 | 0.00 | 0.00 | 86 | 1012.1 |
| 20260906025001 | 80 | 52 | 0.0 | 0.0 | 0.00 | 0.00 | 0.00 | 86 | 1012.2 |
| 20260906024902 | 80 | 52 | 0.0 | 0.0 | 0.00 | 0.00 | 0.00 | 86 | 1012.2 |
| 20260906024802 | 80 | 52 | 0.0 | 0.0 | 0.00 | 0.00 | 0.00 | 86 | 1012.2 |
| 20260906024704 | 80 | 52 | 0.0 | 0.0 | 0.00 | 0.00 | 0.00 | 86 | 1012.2 |
| 20260906024501 | 80 | 355 | 0.0 | 0.0 | 0.00 | 0.00 | 0.00 | 86 | 1012.2 |
| 20260906024305 | 80 | 351 | 0.0 | 0.0 | 0.00 | 0.00 | 0.00 | 86 | 1012.2 |
| 20260906024201 | 80 | 351 | 0.0 | 0.0 | 0.00 | 0.00 | 0.00 | 86 | 1012.1 |
| 20260906024002 | 80 | 350 | 0.0 | 0.0 | 0.00 | 0.00 | 0.00 | 86 | 1012.1 |
| 20260906023906 | 80 | 15 | 0.0 | 0.0 | 0.00 | 0.00 | 0.00 | 86 | 1012.1 |
| 20260906023802 | 80 | 26 | 0.0 | 0.0 | 0.00 | 0.00 | 0.00 | 86 | 1012.1 |
| 20260906023604 | 80 | 26 | 0.0 | 0.0 | 0.00 | 0.00 | 0.00 | 86 | 1012.2 |
| 20260906023401 | 80 | 26 | 0.0 | 0.0 | 0.00 | 0.00 | 0.00 | 86 | 1012.1 |
| 20260906023301 | 80 | 26 | 0.0 | 0.0 | 0.00 | 0.00 | 0.00 | 86 | 1012.1 |
| 20260906023204 | 80 | 26 | 0.0 | 0.0 | 0.00 | 0.00 | 0.00 | 86 | 1012.1 |
| 20260906023101 | 80 | 26 | 0.0 | 0.0 | 0.00 | 0.00 | 0.00 | 86 | 1012.1 |
| 20260906022902 | 81 | 316 | 0.0 | 0.0 | 0.00 | 0.00 | 0.00 | 86 | 1012.1 |
| 20260906022804 | 81 | 316 | 0.0 | 0.0 | 0.00 | 0.00 | 0.00 | 86 | 1012.1 |
| 20260906022701 | 81 | 316 | 0.0 | 0.0 | 0.00 | 0.00 | 0.00 | 86 | 1012.1 |
| 20260906022601 | 81 | 316 | 0.0 | 0.0 | 0.00 | 0.00 | 0.00 | 86 | 1012.1 |
| 20260906022501 | 81 | 316 | 0.0 | 0.0 | 0.00 | 0.00 | 0.00 | 86 | 1012.1 |
| 20260906022403 | 81 | 315 | 0.0 | 0.0 | 0.00 | 0.00 | 0.00 | 86 | 1012.1 |
| 20260906022301 | 81 | 315 | 0.0 | 0.0 | 0.00 | 0.00 | 0.00 | 86 | 1012.0 |
| 20260906022201 | 81 | 315 | 0.0 | 0.0 | 0.00 | 0.00 | 0.00 | 86 | 1012.0 |
| 20260906022101 | 81 | 315 | 0.0 | 0.0 | 0.00 | 0.00 | 0.00 | 86 | 1012.0 |
| 20260906022004 | 81 | 313 | 0.0 | 0.0 | 0.00 | 0.00 | 0.00 | 86 | 1011.9 |
| 20260906021901 | 81 | 355 | 0.0 | 0.0 | 0.00 | 0.00 | 0.00 | 86 | 1011.9 |
| 20260906021802 | 81 | 355 | 0.0 | 0.0 | 0.00 | 0.00 | 0.00 | 86 | 1011.9 |
| 20260906021702 | 81 | 355 | 0.0 | 0.0 | 0.00 | 0.00 | 0.00 | 86 | 1011.9 |
| 20260906021605 | 81 | 355 | 0.0 | 0.0 | 0.00 | 0.00 | 0.00 | 86 | 1011.9 |
| 20260906021502 | 81 | 355 | 0.0 | 0.0 | 0.00 | 0.00 | 0.00 | 86 | 1011.9 |
| 20260906021401 | 81 | 355 | 0.0 | 0.0 | 0.00 | 0.00 | 0.00 | 86 | 1011.9 |
| 20260906021301 | 81 | 355 | 0.0 | 0.0 | 0.00 | 0.00 | 0.00 | 86 | 1011.9 |
| 20260906021204 | 81 | 330 | 0.0 | 0.0 | 0.00 | 0.00 | 0.00 | 86 | 1011.9 |
| 20260906021102 | 81 | 330 | 0.0 | 0.0 | 0.00 | 0.00 | 0.00 | 86 | 1011.9 |
| 20260906021001 | 81 | 38 | 0.0 | 0.0 | 0.00 | 0.00 | 0.00 | 86 | 1011.9 |
| 20260906020901 | 81 | 59 | 0.0 | 3.0 | 0.00 | 0.00 | 0.00 | 86 | 1011.9 |
| 20260906020803 | 81 | 60 | 0.0 | 3.0 | 0.00 | 0.00 | 0.00 | 86 | 1011.8 |
| 20260906020601 | 81 | 25 | 0.0 | 3.0 | 0.00 | 0.00 | 0.00 | 86 | 1011.9 |
| 20260906020501 | 81 | 21 | 0.0 | 3.0 | 0.00 | 0.00 | 0.00 | 86 | 1011.9 |
| 20260906020402 | 81 | 51 | 0.0 | 4.0 | 0.00 | 0.00 | 0.00 | 86 | 1011.8 |
| 20260906020301 | 81 | 51 | 0.0 | 4.0 | 0.00 | 0.00 | 0.00 | 86 | 1011.8 |
| 20260906020201 | 81 | 51 | 0.0 | 4.0 | 0.00 | 0.00 | 0.00 | 86 | 1011.9 |
| 20260906020004 | 81 | 69 | 0.0 | 4.0 | 0.00 | 0.00 | 0.00 | 86 | 1011.8 |
| 20260906015901 | 81 | 69 | 0.0 | 6.0 | 0.00 | 0.00 | 0.00 | 86 | 1011.8 |
| 20260906015803 | 81 | 69 | 0.0 | 6.0 | 0.00 | 0.00 | 0.00 | 86 | 1011.8 |
| 20260906015701 | 81 | 69 | 0.0 | 6.0 | 0.00 | 0.00 | 0.00 | 86 | 1011.8 |
| 20260906015501 | 81 | 10 | 0.0 | 6.0 | 0.00 | 0.00 | 0.00 | 86 | 1011.7 |
| 20260906015402 | 81 | 5 | 0.0 | 6.0 | 0.00 | 0.00 | 0.00 | 86 | 1011.8 |
| 20260906015305 | 81 | 328 | 0.0 | 6.0 | 0.00 | 0.00 | 0.00 | 86 | 1011.7 |
| 20260906015205 | 81 | 348 | 0.0 | 6.0 | 0.00 | 0.00 | 0.00 | 86 | 1011.7 |
| 20260906015101 | 81 | 69 | 0.0 | 6.0 | 0.00 | 0.00 | 0.00 | 87 | 1011.7 |
| 20260906015001 | 81 | 12 | 0.0 | 2.0 | 0.00 | 0.00 | 0.00 | 87 | 1011.7 |
| 20260906014901 | 81 | 12 | 0.0 | 2.0 | 0.00 | 0.00 | 0.00 | 87 | 1011.7 |
| 20260906014803 | 81 | 52 | 0.0 | 0.0 | 0.00 | 0.00 | 0.00 | 87 | 1011.6 |
| 20260906014702 | 81 | 54 | 0.0 | 0.0 | 0.00 | 0.00 | 0.00 | 87 | 1011.6 |
| 20260906014501 | 81 | 278 | 0.0 | 0.0 | 0.00 | 0.00 | 0.00 | 87 | 1011.6 |
| 20260906014404 | 81 | 337 | 0.0 | 0.0 | 0.00 | 0.00 | 0.00 | 87 | 1011.6 |
| 20260906014301 | 81 | 82 | 0.0 | 0.0 | 0.00 | 0.00 | 0.00 | 87 | 1011.6 |
| 20260906014202 | 81 | 348 | 0.0 | 0.0 | 0.00 | 0.00 | 0.00 | 87 | 1011.6 |
| 20260906014102 | 81 | 309 | 0.0 | 0.0 | 0.00 | 0.00 | 0.00 | 87 | 1011.5 |
| 20260906013901 | 81 | 336 | 0.0 | 0.0 | 0.00 | 0.00 | 0.00 | 87 | 1011.5 |
| 20260906013800 | 81 | 336 | 0.0 | 0.0 | 0.00 | 0.00 | 0.00 | 87 | 1011.4 |
| 20260906013701 | 81 | 336 | 0.0 | 0.0 | 0.00 | 0.00 | 0.00 | 87 | 1011.5 |
| 20260906013604 | 81 | 355 | 0.0 | 0.0 | 0.00 | 0.00 | 0.00 | 87 | 1011.5 |
| 20260906013502 | 81 | 355 | 0.0 | 0.0 | 0.00 | 0.00 | 0.00 | 86 | 1011.4 |
| 20260906013402 | 82 | 311 | 0.0 | 0.0 | 0.00 | 0.00 | 0.00 | 86 | 1011.4 |
| 20260906013301 | 82 | 340 | 0.0 | 0.0 | 0.00 | 0.00 | 0.00 | 86 | 1011.3 |
| 20260906013204 | 82 | 340 | 0.0 | 0.0 | 0.00 | 0.00 | 0.00 | 86 | 1011.4 |
| 20260906013101 | 82 | 327 | 0.0 | 0.0 | 0.00 | 0.00 | 0.00 | 86 | 1011.3 |
| 20260906012902 | 82 | 327 | 0.0 | 0.0 | 0.00 | 0.00 | 0.00 | 86 | 1011.3 |
| 20260906012804 | 82 | 335 | 0.0 | 0.0 | 0.00 | 0.00 | 0.00 | 86 | 1011.4 |
| 20260906012701 | 82 | 335 | 0.0 | 0.0 | 0.00 | 0.00 | 0.00 | 86 | 1011.3 |
| 20260906012600 | 82 | 22 | 0.0 | 0.0 | 0.00 | 0.00 | 0.00 | 86 | 1011.3 |
| 20260906012501 | 82 | 22 | 0.0 | 0.0 | 0.00 | 0.00 | 0.00 | 86 | 1011.2 |
| 20260906012404 | 82 | 22 | 0.0 | 0.0 | 0.00 | 0.00 | 0.00 | 86 | 1011.3 |
| 20260906012301 | 82 | 22 | 0.0 | 0.0 | 0.00 | 0.00 | 0.00 | 86 | 1011.3 |
| 20260906012201 | 82 | 22 | 0.0 | 0.0 | 0.00 | 0.00 | 0.00 | 86 | 1011.2 |
| 20260906012102 | 82 | 22 | 0.0 | 0.0 | 0.00 | 0.00 | 0.00 | 86 | 1011.2 |
| 20260906012005 | 82 | 22 | 0.0 | 0.0 | 0.00 | 0.00 | 0.00 | 86 | 1011.1 |
| 20260906011901 | 82 | 22 | 0.0 | 0.0 | 0.00 | 0.00 | 0.00 | 86 | 1011.2 |
| 20260906011801 | 82 | 31 | 0.0 | 0.0 | 0.00 | 0.00 | 0.00 | 86 | 1011.2 |
| 20260906011701 | 82 | 31 | 0.0 | 0.0 | 0.00 | 0.00 | 0.00 | 86 | 1011.1 |
| 20260906011603 | 82 | 34 | 0.0 | 0.0 | 0.00 | 0.00 | 0.00 | 86 | 1011.1 |
| 20260906011502 | 82 | 34 | 0.0 | 0.0 | 0.00 | 0.00 | 0.00 | 86 | 1011.1 |
| 20260906011401 | 82 | 306 | 0.0 | 0.0 | 0.00 | 0.00 | 0.00 | 85 | 1011.1 |
| 20260906011002 | 83 | 306 | 0.0 | 0.0 | 0.00 | 0.00 | 0.00 | 85 | 1011.0 |
| 20260906010906 | 83 | 306 | 0.0 | 0.0 | 0.00 | 0.00 | 0.00 | 85 | 1011.0 |
| 20260906010801 | 83 | 306 | 0.0 | 0.0 | 0.00 | 0.00 | 0.00 | 85 | 1011.0 |
| 20260906010701 | 83 | 306 | 0.0 | 0.0 | 0.00 | 0.00 | 0.00 | 85 | 1011.0 |
| 20260906010605 | 83 | 306 | 0.0 | 0.0 | 0.00 | 0.00 | 0.00 | 85 | 1011.0 |
| 20260906010501 | 83 | 306 | 0.0 | 0.0 | 0.00 | 0.00 | 0.00 | 84 | 1011.0 |
| 20260906010401 | 83 | 306 | 0.0 | 0.0 | 0.00 | 0.00 | 0.00 | 84 | 1010.9 |
| 20260906010301 | 83 | 306 | 0.0 | 0.0 | 0.00 | 0.00 | 0.00 | 84 | 1011.0 |
| 20260906010203 | 83 | 306 | 0.0 | 0.0 | 0.00 | 0.00 | 0.00 | 84 | 1010.9 |
| 20260906005902 | 83 | 306 | 0.0 | 0.0 | 0.00 | 0.00 | 0.00 | 84 | 1010.9 |
| 20260906005804 | 83 | 306 | 0.0 | 0.0 | 0.00 | 0.00 | 0.00 | 84 | 1010.9 |
| 20260906005701 | 83 | 306 | 0.0 | 0.0 | 0.00 | 0.00 | 0.00 | 84 | 1010.8 |
| 20260906005601 | 83 | 306 | 0.0 | 0.0 | 0.00 | 0.00 | 0.00 | 84 | 1010.8 |
| 20260906005501 | 83 | 306 | 0.0 | 0.0 | 0.00 | 0.00 | 0.00 | 84 | 1010.7 |
| 20260906005405 | 83 | 306 | 0.0 | 0.0 | 0.00 | 0.00 | 0.00 | 84 | 1010.7 |
| 20260906005301 | 83 | 306 | 0.0 | 0.0 | 0.00 | 0.00 | 0.00 | 84 | 1010.7 |
| 20260906005201 | 83 | 306 | 0.0 | 0.0 | 0.00 | 0.00 | 0.00 | 84 | 1010.7 |
| 20260906005104 | 84 | 306 | 0.0 | 0.0 | 0.00 | 0.00 | 0.00 | 84 | 1010.7 |
| 20260906005002 | 84 | 306 | 0.0 | 0.0 | 0.00 | 0.00 | 0.00 | 84 | 1010.7 |
| 20260906004901 | 84 | 306 | 0.0 | 0.0 | 0.00 | 0.00 | 0.00 | 84 | 1010.8 |
| 20260906004802 | 84 | 306 | 0.0 | 0.0 | 0.00 | 0.00 | 0.00 | 84 | 1010.7 |
| 20260906004703 | 84 | 306 | 0.0 | 0.0 | 0.00 | 0.00 | 0.00 | 84 | 1010.7 |
| 20260906004602 | 84 | 306 | 0.0 | 0.0 | 0.00 | 0.00 | 0.00 | 84 | 1010.7 |
| 20260906004501 | 84 | 306 | 0.0 | 0.0 | 0.00 | 0.00 | 0.00 | 84 | 1010.6 |
| 20260906004402 | 84 | 306 | 0.0 | 0.0 | 0.00 | 0.00 | 0.00 | 84 | 1010.6 |
| 20260906004304 | 84 | 306 | 0.0 | 0.0 | 0.00 | 0.00 | 0.00 | 84 | 1010.6 |
| 20260906004101 | 84 | 306 | 0.0 | 0.0 | 0.00 | 0.00 | 0.00 | 83 | 1010.7 |
| 20260906004001 | 84 | 306 | 0.0 | 0.0 | 0.00 | 0.00 | 0.00 | 83 | 1010.7 |
| 20260906003904 | 84 | 306 | 0.0 | 0.0 | 0.00 | 0.00 | 0.00 | 83 | 1010.7 |
| 20260906003801 | 84 | 306 | 0.0 | 0.0 | 0.00 | 0.00 | 0.00 | 83 | 1010.8 |
| 20260906003701 | 84 | 306 | 0.0 | 0.0 | 0.00 | 0.00 | 0.00 | 82 | 1010.7 |
| 20260906003601 | 84 | 306 | 0.0 | 0.0 | 0.00 | 0.00 | 0.00 | 82 | 1010.8 |
| 20260906003508 | 84 | 306 | 0.0 | 0.0 | 0.00 | 0.00 | 0.00 | 82 | 1010.8 |
| 20260906003401 | 84 | 306 | 0.0 | 0.0 | 0.00 | 0.00 | 0.00 | 82 | 1010.9 |
| 20260906003204 | 84 | 306 | 0.0 | 0.0 | 0.00 | 0.00 | 0.00 | 82 | 1010.7 |
| 20260906003101 | 84 | 306 | 0.0 | 0.0 | 0.00 | 0.00 | 0.00 | 82 | 1010.9 |
| 20260906002805 | 85 | 306 | 0.0 | 0.0 | 0.00 | 0.00 | 0.00 | 82 | 1010.8 |
| 20260906002701 | 85 | 306 | 0.0 | 0.0 | 0.00 | 0.00 | 0.00 | 82 | 1010.8 |
| 20260906002601 | 85 | 306 | 0.0 | 0.0 | 0.00 | 0.00 | 0.00 | 82 | 1010.8 |
| 20260906002501 | 85 | 306 | 0.0 | 0.0 | 0.00 | 0.00 | 0.00 | 81 | 1010.8 |
| 20260906002403 | 85 | 306 | 0.0 | 0.0 | 0.00 | 0.00 | 0.00 | 81 | 1010.7 |
| 20260906002301 | 85 | 306 | 0.0 | 0.0 | 0.00 | 0.00 | 0.00 | 81 | 1010.8 |
| 20260906002102 | 85 | 306 | 0.0 | 0.0 | 0.00 | 0.00 | 0.00 | 81 | 1010.8 |
| 20260906002004 | 85 | 306 | 0.0 | 0.0 | 0.00 | 0.00 | 0.00 | 80 | 1010.9 |
| 20260906001901 | 85 | 306 | 0.0 | 0.0 | 0.00 | 0.00 | 0.00 | 80 | 1010.9 |
| 20260906001800 | 85 | 306 | 0.0 | 0.0 | 0.00 | 0.00 | 0.00 | 80 | 1010.9 |
| 20260906001701 | 85 | 306 | 0.0 | 0.0 | 0.00 | 0.00 | 0.00 | 80 | 1010.9 |
| 20260906001605 | 85 | 306 | 0.0 | 0.0 | 0.00 | 0.00 | 0.00 | 80 | 1010.9 |
| 20260906001401 | 85 | 306 | 0.0 | 0.0 | 0.00 | 0.00 | 0.00 | 80 | 1010.9 |
| 20260906001203 | 85 | 306 | 0.0 | 0.0 | 0.00 | 0.00 | 0.00 | 80 | 1010.9 |
| 20260906001101 | 86 | 306 | 0.0 | 0.0 | 0.00 | 0.00 | 0.00 | 80 | 1011.0 |
| 20260906001001 | 86 | 306 | 0.0 | 0.0 | 0.00 | 0.00 | 0.00 | 80 | 1011.0 |
| 20260906000805 | 86 | 306 | 0.0 | 0.0 | 0.00 | 0.00 | 0.00 | 80 | 1011.0 |
| 20260906000701 | 86 | 306 | 0.0 | 0.0 | 0.00 | 0.00 | 0.00 | 80 | 1010.9 |
| 20260906000601 | 86 | 306 | 0.0 | 0.0 | 0.00 | 0.00 | 0.00 | 80 | 1011.0 |
| 20260906000501 | 86 | 306 | 0.0 | 0.0 | 0.00 | 0.00 | 0.00 | 80 | 1011.0 |
| 20260906000405 | 86 | 306 | 0.0 | 0.0 | 0.00 | 0.00 | 0.00 | 80 | 1011.0 |
| 20260906000303 | 86 | 306 | 0.0 | 0.0 | 0.00 | 0.00 | 0.00 | 80 | 1011.0 |
| 20260905235902 | 86 | 306 | 0.0 | 0.0 | 0.00 | 0.00 | 0.00 | 79 | 1010.9 |
| 20260905235801 | 86 | 306 | 0.0 | 0.0 | 0.00 | 0.00 | 0.00 | 79 | 1010.9 |
| 20260905235704 | 86 | 306 | 0.0 | 0.0 | 0.00 | 0.00 | 0.00 | 79 | 1010.9 |
| 20260905235600 | 86 | 306 | 0.0 | 0.0 | 0.00 | 0.00 | 0.00 | 79 | 1011.0 |
| 20260905235501 | 86 | 306 | 0.0 | 0.0 | 0.00 | 0.00 | 0.00 | 79 | 1011.0 |
| 20260905235306 | 87 | 306 | 0.0 | 0.0 | 0.00 | 0.00 | 0.00 | 79 | 1010.9 |
| 20260905235202 | 87 | 306 | 0.0 | 0.0 | 0.00 | 0.00 | 0.00 | 79 | 1010.9 |
| 20260905235101 | 87 | 306 | 0.0 | 0.0 | 0.00 | 0.00 | 0.00 | 79 | 1011.0 |
| 20260905234903 | 87 | 306 | 0.0 | 0.0 | 0.00 | 0.00 | 0.00 | 78 | 1011.0 |
| 20260905234701 | 87 | 258 | 0.0 | 0.0 | 0.00 | 0.00 | 0.00 | 78 | 1011.0 |
| 20260905234601 | 87 | 221 | 0.0 | 0.0 | 0.00 | 0.00 | 0.00 | 78 | 1011.0 |
| 20260905234400 | 87 | 97 | 0.0 | 0.0 | 0.00 | 0.00 | 0.00 | 78 | 1011.0 |
| 20260905234302 | 87 | 87 | 0.0 | 0.0 | 0.00 | 0.00 | 0.00 | 78 | 1011.1 |
| 20260905234104 | 87 | 87 | 0.0 | 0.0 | 0.00 | 0.00 | 0.00 | 78 | 1011.0 |
| 20260905233901 | 87 | 87 | 0.0 | 0.0 | 0.00 | 0.00 | 0.00 | 78 | 1011.0 |
| 20260905233800 | 87 | 87 | 0.0 | 0.0 | 0.00 | 0.00 | 0.00 | 78 | 1011.0 |
| 20260905233704 | 87 | 87 | 0.0 | 0.0 | 0.00 | 0.00 | 0.00 | 78 | 1011.0 |
| 20260905233602 | 87 | 87 | 0.0 | 0.0 | 0.00 | 0.00 | 0.00 | 78 | 1011.0 |
| 20260905233502 | 88 | 87 | 0.0 | 0.0 | 0.00 | 0.00 | 0.00 | 77 | 1011.0 |
| 20260905233401 | 88 | 87 | 0.0 | 0.0 | 0.00 | 0.00 | 0.00 | 77 | 1011.0 |
| 20260905233302 | 88 | 87 | 0.0 | 0.0 | 0.00 | 0.00 | 0.00 | 77 | 1011.0 |
| 20260905233201 | 88 | 87 | 0.0 | 0.0 | 0.00 | 0.00 | 0.00 | 77 | 1011.0 |
| 20260905232903 | 88 | 87 | 0.0 | 0.0 | 0.00 | 0.00 | 0.00 | 77 | 1011.0 |
| 20260905232801 | 88 | 87 | 0.0 | 0.0 | 0.00 | 0.00 | 0.00 | 77 | 1011.0 |
| 20260905232702 | 88 | 87 | 0.0 | 0.0 | 0.00 | 0.00 | 0.00 | 77 | 1011.0 |
| 20260905232505 | 88 | 87 | 0.0 | 0.0 | 0.00 | 0.00 | 0.00 | 76 | 1011.0 |
| 20260905232301 | 88 | 87 | 0.0 | 0.0 | 0.00 | 0.00 | 0.00 | 77 | 1010.9 |
| 20260905232201 | 88 | 87 | 0.0 | 0.0 | 0.00 | 0.00 | 0.00 | 77 | 1010.9 |
| 20260905232104 | 88 | 87 | 0.0 | 0.0 | 0.00 | 0.00 | 0.00 | 77 | 1010.9 |
| 20260905232001 | 88 | 87 | 0.0 | 0.0 | 0.00 | 0.00 | 0.00 | 76 | 1010.9 |
| 20260905231902 | 88 | 87 | 0.0 | 0.0 | 0.00 | 0.00 | 0.00 | 76 | 1010.9 |
| 20260905231801 | 88 | 87 | 0.0 | 0.0 | 0.00 | 0.00 | 0.00 | 76 | 1010.8 |
| 20260905231704 | 88 | 87 | 0.0 | 0.0 | 0.00 | 0.00 | 0.00 | 76 | 1010.8 |
| 20260905231601 | 88 | 87 | 0.0 | 0.0 | 0.00 | 0.00 | 0.00 | 76 | 1010.8 |
| 20260905231501 | 88 | 87 | 0.0 | 0.0 | 0.00 | 0.00 | 0.00 | 76 | 1010.7 |
| 20260905231402 | 88 | 87 | 0.0 | 0.0 | 0.00 | 0.00 | 0.00 | 76 | 1010.7 |
| 20260905231303 | 89 | 87 | 0.0 | 0.0 | 0.00 | 0.00 | 0.00 | 76 | 1010.7 |
| 20260905231201 | 89 | 87 | 0.0 | 0.0 | 0.00 | 0.00 | 0.00 | 76 | 1010.7 |
| 20260905231102 | 89 | 87 | 0.0 | 0.0 | 0.00 | 0.00 | 0.00 | 76 | 1010.7 |
| 20260905231001 | 89 | 87 | 0.0 | 0.0 | 0.00 | 0.00 | 0.00 | 76 | 1010.7 |
| 20260905230903 | 89 | 87 | 0.0 | 0.0 | 0.00 | 0.00 | 0.00 | 75 | 1010.6 |
| 20260905230800 | 89 | 87 | 0.0 | 0.0 | 0.00 | 0.00 | 0.00 | 75 | 1010.7 |
| 20260905230702 | 89 | 87 | 0.0 | 0.0 | 0.00 | 0.00 | 0.00 | 75 | 1010.6 |
| 20260905230601 | 89 | 87 | 0.0 | 0.0 | 0.00 | 0.00 | 0.00 | 75 | 1010.6 |
| 20260905230503 | 89 | 87 | 0.0 | 0.0 | 0.00 | 0.00 | 0.00 | 75 | 1010.6 |
| 20260905230401 | 89 | 87 | 0.0 | 0.0 | 0.00 | 0.00 | 0.00 | 75 | 1010.7 |
| 20260905230301 | 89 | 87 | 0.0 | 0.0 | 0.00 | 0.00 | 0.00 | 75 | 1010.7 |
| 20260905230103 | 89 | 87 | 0.0 | 0.0 | 0.00 | 0.00 | 0.00 | 75 | 1010.6 |
| 20260905230004 | 89 | 87 | 0.0 | 0.0 | 0.00 | 0.00 | 0.00 | 74 | 1010.6 |
| 20260905225901 | 89 | 87 | 0.0 | 0.0 | 0.00 | 0.00 | 0.00 | 74 | 1010.6 |
| 20260905225701 | 89 | 87 | 0.0 | 0.0 | 0.00 | 0.00 | 0.00 | 75 | 1010.6 |
| 20260905225602 | 89 | 87 | 0.0 | 0.0 | 0.00 | 0.00 | 0.00 | 75 | 1010.6 |
| 20260905225501 | 89 | 87 | 0.0 | 0.0 | 0.00 | 0.00 | 0.00 | 74 | 1010.7 |
| 20260905225404 | 89 | 87 | 0.0 | 0.0 | 0.00 | 0.00 | 0.00 | 74 | 1010.6 |
| 20260905225301 | 90 | 87 | 0.0 | 0.0 | 0.00 | 0.00 | 0.00 | 74 | 1010.6 |
| 20260905225101 | 90 | 87 | 0.0 | 0.0 | 0.00 | 0.00 | 0.00 | 74 | 1010.6 |
| 20260905224901 | 90 | 87 | 0.0 | 0.0 | 0.00 | 0.00 | 0.00 | 74 | 1010.6 |
| 20260905224801 | 90 | 87 | 0.0 | 0.0 | 0.00 | 0.00 | 0.00 | 74 | 1010.6 |
| 20260905224700 | 90 | 87 | 0.0 | 0.0 | 0.00 | 0.00 | 0.00 | 73 | 1010.7 |
| 20260905224603 | 90 | 87 | 0.0 | 0.0 | 0.00 | 0.00 | 0.00 | 73 | 1010.7 |
| 20260905224501 | 90 | 87 | 0.0 | 0.0 | 0.00 | 0.00 | 0.00 | 73 | 1010.6 |
| 20260905224401 | 90 | 87 | 0.0 | 0.0 | 0.00 | 0.00 | 0.00 | 73 | 1010.6 |
| 20260905224205 | 90 | 87 | 0.0 | 0.0 | 0.00 | 0.00 | 0.00 | 73 | 1010.6 |
| 20260905224102 | 90 | 87 | 0.0 | 0.0 | 0.00 | 0.00 | 0.00 | 73 | 1010.5 |
| 20260905224001 | 90 | 87 | 0.0 | 0.0 | 0.00 | 0.00 | 0.00 | 73 | 1010.6 |
| 20260905223804 | 90 | 87 | 0.0 | 0.0 | 0.00 | 0.00 | 0.00 | 73 | 1010.5 |
| 20260905223704 | 90 | 87 | 0.0 | 0.0 | 0.00 | 0.00 | 0.00 | 73 | 1010.6 |
| 20260905223501 | 90 | 87 | 0.0 | 0.0 | 0.00 | 0.00 | 0.00 | 73 | 1010.5 |
| 20260905223405 | 91 | 87 | 0.0 | 0.0 | 0.00 | 0.00 | 0.00 | 73 | 1010.5 |
| 20260905223301 | 91 | 87 | 0.0 | 0.0 | 0.00 | 0.00 | 0.00 | 73 | 1010.5 |
| 20260905223201 | 91 | 87 | 0.0 | 0.0 | 0.00 | 0.00 | 0.00 | 73 | 1010.4 |
| 20260905223101 | 91 | 87 | 0.0 | 0.0 | 0.00 | 0.00 | 0.00 | 73 | 1010.4 |
| 20260905223003 | 91 | 87 | 0.0 | 0.0 | 0.00 | 0.00 | 0.00 | 72 | 1010.4 |
| 20260905222801 | 91 | 87 | 0.0 | 0.0 | 0.00 | 0.00 | 0.00 | 73 | 1010.4 |
| 20260905222701 | 91 | 87 | 0.0 | 0.0 | 0.00 | 0.00 | 0.00 | 72 | 1010.4 |
| 20260905222604 | 91 | 87 | 0.0 | 0.0 | 0.00 | 0.00 | 0.00 | 72 | 1010.5 |
| 20260905222501 | 91 | 87 | 0.0 | 0.0 | 0.00 | 0.00 | 0.00 | 72 | 1010.5 |
| 20260905222203 | 91 | 87 | 0.0 | 0.0 | 0.00 | 0.00 | 0.00 | 72 | 1010.4 |
| 20260905222002 | 91 | 87 | 0.0 | 0.0 | 0.00 | 0.00 | 0.00 | 71 | 1010.4 |
| 20260905221901 | 91 | 87 | 0.0 | 0.0 | 0.00 | 0.00 | 0.00 | 71 | 1010.4 |
| 20260905221803 | 91 | 87 | 0.0 | 0.0 | 0.00 | 0.00 | 0.00 | 71 | 1010.4 |
| 20260905221601 | 91 | 87 | 0.0 | 0.0 | 0.00 | 0.00 | 0.00 | 71 | 1010.4 |
| 20260905221500 | 91 | 87 | 0.0 | 0.0 | 0.00 | 0.00 | 0.00 | 71 | 1010.4 |
| 20260905221402 | 91 | 87 | 0.0 | 0.0 | 0.00 | 0.00 | 0.00 | 71 | 1010.4 |
| 20260905221301 | 91 | 87 | 0.0 | 0.0 | 0.00 | 0.00 | 0.00 | 71 | 1010.4 |
| 20260905221202 | 92 | 87 | 0.0 | 0.0 | 0.00 | 0.00 | 0.00 | 71 | 1010.4 |
| 20260905221101 | 92 | 87 | 0.0 | 0.0 | 0.00 | 0.00 | 0.00 | 70 | 1010.5 |
| 20260905221003 | 92 | 87 | 0.0 | 0.0 | 0.00 | 0.00 | 0.00 | 70 | 1010.4 |
| 20260905220901 | 92 | 87 | 0.0 | 0.0 | 0.00 | 0.00 | 0.00 | 71 | 1010.5 |
| 20260905220800 | 92 | 87 | 0.0 | 0.0 | 0.00 | 0.00 | 0.00 | 71 | 1010.4 |
| 20260905220701 | 92 | 87 | 0.0 | 0.0 | 0.00 | 0.00 | 0.00 | 71 | 1010.5 |
| 20260905220604 | 92 | 87 | 0.0 | 0.0 | 0.00 | 0.00 | 0.00 | 71 | 1010.4 |
| 20260905220501 | 92 | 87 | 0.0 | 0.0 | 0.00 | 0.00 | 0.00 | 71 | 1010.4 |
| 20260905220400 | 92 | 87 | 0.0 | 0.0 | 0.00 | 0.00 | 0.00 | 71 | 1010.5 |
| 20260905220301 | 92 | 87 | 0.0 | 0.0 | 0.00 | 0.00 | 0.00 | 71 | 1010.4 |
| 20260905220204 | 92 | 87 | 0.0 | 0.0 | 0.00 | 0.00 | 0.00 | 70 | 1010.4 |
| 20260905220100 | 92 | 87 | 0.0 | 0.0 | 0.00 | 0.00 | 0.00 | 70 | 1010.4 |
| 20260905220004 | 92 | 87 | 0.0 | 0.0 | 0.00 | 0.00 | 0.00 | 70 | 1010.4 |
| 20260905215905 | 92 | 87 | 0.0 | 0.0 | 0.00 | 0.00 | 0.00 | 70 | 1010.4 |
| 20260905215801 | 92 | 87 | 0.0 | 0.0 | 0.00 | 0.00 | 0.00 | 70 | 1010.4 |
| 20260905215701 | 92 | 87 | 0.0 | 0.0 | 0.00 | 0.00 | 0.00 | 70 | 1010.4 |
| 20260905215602 | 92 | 87 | 0.0 | 0.0 | 0.00 | 0.00 | 0.00 | 70 | 1010.4 |
| 20260905215401 | 92 | 87 | 0.0 | 0.0 | 0.00 | 0.00 | 0.00 | 70 | 1010.5 |
| 20260905215301 | 92 | 87 | 0.0 | 0.0 | 0.00 | 0.00 | 0.00 | 70 | 1010.5 |
| 20260905215201 | 92 | 87 | 0.0 | 0.0 | 0.00 | 0.00 | 0.00 | 69 | 1010.5 |
| 20260905215103 | 92 | 87 | 0.0 | 0.0 | 0.00 | 0.00 | 0.00 | 70 | 1010.5 |
| 20260905215000 | 92 | 87 | 0.0 | 0.0 | 0.00 | 0.00 | 0.00 | 70 | 1010.6 |
| 20260905214901 | 92 | 87 | 0.0 | 0.0 | 0.00 | 0.00 | 0.00 | 70 | 1010.6 |
| 20260905214702 | 92 | 87 | 0.0 | 0.0 | 0.00 | 0.00 | 0.00 | 69 | 1010.6 |
| 20260905214602 | 92 | 87 | 0.0 | 0.0 | 0.00 | 0.00 | 0.00 | 70 | 1010.6 |
| 20260905214502 | 92 | 296 | 0.0 | 0.0 | 0.00 | 0.00 | 0.00 | 69 | 1010.6 |
| 20260905214401 | 92 | 53 | 0.0 | 0.0 | 0.00 | 0.00 | 0.00 | 69 | 1010.6 |
| 20260905214304 | 92 | 53 | 0.0 | 0.0 | 0.00 | 0.00 | 0.00 | 69 | 1010.6 |
| 20260905214101 | 92 | 53 | 0.0 | 0.0 | 0.00 | 0.00 | 0.00 | 69 | 1010.6 |
| 20260905214001 | 92 | 53 | 0.0 | 0.0 | 0.00 | 0.00 | 0.00 | 69 | 1010.6 |
| 20260905213904 | 92 | 53 | 0.0 | 0.0 | 0.00 | 0.00 | 0.00 | 69 | 1010.6 |
| 20260905213801 | 93 | 58 | 0.0 | 0.0 | 0.00 | 0.00 | 0.00 | 68 | 1010.6 |
| 20260905213601 | 93 | 58 | 0.0 | 0.0 | 0.00 | 0.00 | 0.00 | 69 | 1010.6 |
| 20260905213503 | 93 | 58 | 0.0 | 0.0 | 0.00 | 0.00 | 0.00 | 68 | 1010.6 |
| 20260905213401 | 93 | 58 | 0.0 | 0.0 | 0.00 | 0.00 | 0.00 | 67 | 1010.6 |
| 20260905213301 | 93 | 58 | 0.0 | 0.0 | 0.00 | 0.00 | 0.00 | 67 | 1010.7 |
| 20260905213201 | 93 | 58 | 0.0 | 0.0 | 0.00 | 0.00 | 0.00 | 67 | 1010.6 |
| 20260905213104 | 93 | 58 | 0.0 | 0.0 | 0.00 | 0.00 | 0.00 | 68 | 1010.7 |
| 20260905213001 | 93 | 58 | 0.0 | 0.0 | 0.00 | 0.00 | 0.00 | 67 | 1010.7 |
| 20260905212902 | 93 | 58 | 0.0 | 0.0 | 0.00 | 0.00 | 0.00 | 67 | 1010.7 |
| 20260905212800 | 93 | 59 | 0.0 | 0.0 | 0.00 | 0.00 | 0.00 | 67 | 1010.7 |
| 20260905212704 | 93 | 59 | 0.0 | 0.0 | 0.00 | 0.00 | 0.00 | 68 | 1010.7 |
| 20260905212601 | 93 | 59 | 0.0 | 0.0 | 0.00 | 0.00 | 0.00 | 68 | 1010.7 |
| 20260905212401 | 93 | 59 | 0.0 | 0.0 | 0.00 | 0.00 | 0.00 | 68 | 1010.7 |
| 20260905212306 | 93 | 59 | 0.0 | 0.0 | 0.00 | 0.00 | 0.00 | 66 | 1010.7 |
| 20260905212101 | 93 | 59 | 0.0 | 0.0 | 0.00 | 0.00 | 0.00 | 67 | 1010.7 |
| 20260905212003 | 93 | 59 | 0.0 | 0.0 | 0.00 | 0.00 | 0.00 | 67 | 1010.7 |
| 20260905211902 | 93 | 59 | 0.0 | 0.0 | 0.00 | 0.00 | 0.00 | 67 | 1010.7 |
| 20260905211801 | 93 | 59 | 0.0 | 0.0 | 0.00 | 0.00 | 0.00 | 67 | 1010.7 |
| 20260905211702 | 94 | 59 | 0.0 | 0.0 | 0.00 | 0.00 | 0.00 | 67 | 1010.7 |
| 20260905211603 | 94 | 59 | 0.0 | 0.0 | 0.00 | 0.00 | 0.00 | 67 | 1010.7 |
| 20260905211501 | 94 | 59 | 0.0 | 0.0 | 0.00 | 0.00 | 0.00 | 68 | 1010.7 |
| 20260905211401 | 94 | 59 | 0.0 | 0.0 | 0.00 | 0.00 | 0.00 | 67 | 1010.6 |
| 20260905211300 | 94 | 59 | 0.0 | 0.0 | 0.00 | 0.00 | 0.00 | 68 | 1010.8 |
| 20260905211202 | 94 | 59 | 0.0 | 0.0 | 0.00 | 0.00 | 0.00 | 67 | 1010.7 |
| 20260905211001 | 94 | 59 | 0.0 | 0.0 | 0.00 | 0.00 | 0.00 | 66 | 1010.8 |
| 20260905210901 | 94 | 59 | 0.0 | 0.0 | 0.00 | 0.00 | 0.00 | 66 | 1010.7 |
| 20260905210804 | 94 | 59 | 0.0 | 0.0 | 0.00 | 0.00 | 0.00 | 68 | 1010.8 |
| 20260905210601 | 94 | 59 | 0.0 | 0.0 | 0.00 | 0.00 | 0.00 | 66 | 1010.8 |
| 20260905210501 | 94 | 59 | 0.0 | 0.0 | 0.00 | 0.00 | 0.00 | 67 | 1010.8 |
| 20260905210402 | 94 | 59 | 0.0 | 2.0 | 0.00 | 0.00 | 0.00 | 68 | 1010.8 |
| 20260905210301 | 94 | 59 | 0.0 | 2.0 | 0.00 | 0.00 | 0.00 | 68 | 1010.8 |
| 20260905210201 | 94 | 59 | 0.0 | 2.0 | 0.00 | 0.00 | 0.00 | 68 | 1010.8 |
| 20260905210100 | 94 | 59 | 0.0 | 2.0 | 0.00 | 0.00 | 0.00 | 67 | 1010.8 |
| 20260905205901 | 94 | 59 | 0.0 | 2.0 | 0.00 | 0.00 | 0.00 | 66 | 1010.9 |
| 20260905205801 | 94 | 59 | 0.0 | 2.0 | 0.00 | 0.00 | 0.00 | 66 | 1010.9 |
| 20260905205701 | 94 | 59 | 0.0 | 2.0 | 0.00 | 0.00 | 0.00 | 66 | 1010.9 |
| 20260905205606 | 94 | 59 | 0.0 | 2.0 | 0.00 | 0.00 | 0.00 | 65 | 1010.9 |
| 20260905205501 | 94 | 5 | 0.0 | 2.0 | 0.00 | 0.00 | 0.00 | 67 | 1010.9 |
| 20260905205401 | 94 | 38 | 0.0 | 0.0 | 0.00 | 0.00 | 0.00 | 66 | 1010.9 |
| 20260905205306 | 94 | 348 | 0.0 | 0.0 | 0.00 | 0.00 | 0.00 | 65 | 1010.9 |
| 20260905205101 | 94 | 348 | 0.0 | 0.0 | 0.00 | 0.00 | 0.00 | 66 | 1010.9 |
| 20260905205002 | 94 | 360 | 0.0 | 0.0 | 0.00 | 0.00 | 0.00 | 66 | 1010.9 |
| 20260905204802 | 94 | 360 | 0.0 | 0.0 | 0.00 | 0.00 | 0.00 | 65 | 1010.9 |
| 20260905204700 | 94 | 360 | 0.0 | 0.0 | 0.00 | 0.00 | 0.00 | 63 | 1010.9 |
| 20260905204601 | 95 | 360 | 0.0 | 0.0 | 0.00 | 0.00 | 0.00 | 63 | 1010.9 |
| 20260905204301 | 95 | 351 | 0.0 | 3.0 | 0.00 | 0.00 | 0.00 | 66 | 1010.9 |
| 20260905204202 | 95 | 355 | 0.0 | 3.0 | 0.00 | 0.00 | 0.00 | 65 | 1010.9 |
| 20260905204102 | 95 | 348 | 0.0 | 3.0 | 0.00 | 0.00 | 0.00 | 65 | 1010.9 |
| 20260905204005 | 95 | 348 | 0.0 | 3.0 | 0.00 | 0.00 | 0.00 | 65 | 1010.9 |
| 20260905203801 | 95 | 355 | 0.0 | 3.0 | 0.00 | 0.00 | 0.00 | 65 | 1010.9 |
| 20260905203701 | 95 | 355 | 0.0 | 3.0 | 0.00 | 0.00 | 0.00 | 64 | 1011.0 |
| 20260905203603 | 95 | 355 | 0.0 | 3.0 | 0.00 | 0.00 | 0.00 | 65 | 1011.0 |
| 20260905203501 | 95 | 233 | 0.0 | 0.0 | 0.00 | 0.00 | 0.00 | 65 | 1011.1 |
| 20260905203401 | 95 | 233 | 0.0 | 0.0 | 0.00 | 0.00 | 0.00 | 65 | 1011.1 |
| 20260905203301 | 95 | 233 | 0.0 | 0.0 | 0.00 | 0.00 | 0.00 | 65 | 1011.1 |
| 20260905203203 | 95 | 233 | 0.0 | 0.0 | 0.00 | 0.00 | 0.00 | 65 | 1011.2 |
| 20260905203101 | 95 | 233 | 0.0 | 0.0 | 0.00 | 0.00 | 0.00 | 65 | 1011.2 |
| 20260905202901 | 95 | 233 | 0.0 | 0.0 | 0.00 | 0.00 | 0.00 | 65 | 1011.2 |
| 20260905202804 | 95 | 233 | 0.0 | 0.0 | 0.00 | 0.00 | 0.00 | 64 | 1011.3 |
| 20260905202700 | 95 | 233 | 0.0 | 0.0 | 0.00 | 0.00 | 0.00 | 64 | 1011.2 |
| 20260905202600 | 95 | 233 | 0.0 | 0.0 | 0.00 | 0.00 | 0.00 | 64 | 1011.3 |
| 20260905202405 | 95 | 233 | 0.0 | 0.0 | 0.00 | 0.00 | 0.00 | 64 | 1011.3 |
| 20260905202200 | 95 | 233 | 0.0 | 0.0 | 0.00 | 0.00 | 0.00 | 64 | 1011.3 |
| 20260905202104 | 95 | 233 | 0.0 | 0.0 | 0.00 | 0.00 | 0.00 | 64 | 1011.4 |
| 20260905202001 | 95 | 233 | 0.0 | 0.0 | 0.00 | 0.00 | 0.00 | 64 | 1011.3 |
| 20260905201901 | 95 | 233 | 0.0 | 0.0 | 0.00 | 0.00 | 0.00 | 62 | 1011.4 |
| 20260905201802 | 95 | 233 | 0.0 | 0.0 | 0.00 | 0.00 | 0.00 | 62 | 1011.3 |
| 20260905201703 | 95 | 233 | 0.0 | 0.0 | 0.00 | 0.00 | 0.00 | 61 | 1011.3 |
| 20260905201501 | 95 | 261 | 0.0 | 0.0 | 0.00 | 0.00 | 0.00 | 62 | 1011.4 |
| 20260905201400 | 95 | 261 | 0.0 | 0.0 | 0.00 | 0.00 | 0.00 | 62 | 1011.4 |
| 20260905201202 | 95 | 261 | 0.0 | 0.0 | 0.00 | 0.00 | 0.00 | 62 | 1011.4 |
| 20260905201101 | 95 | 260 | 0.0 | 0.0 | 0.00 | 0.00 | 0.00 | 62 | 1011.4 |
| 20260905201001 | 95 | 260 | 0.0 | 0.0 | 0.00 | 0.00 | 0.00 | 63 | 1011.4 |
| 20260905200903 | 95 | 260 | 0.0 | 0.0 | 0.00 | 0.00 | 0.00 | 65 | 1011.4 |
| 20260905200800 | 95 | 260 | 0.0 | 0.0 | 0.00 | 0.00 | 0.00 | 65 | 1011.4 |
| 20260905200701 | 95 | 260 | 0.0 | 0.0 | 0.00 | 0.00 | 0.00 | 65 | 1011.4 |
| 20260905200601 | 95 | 260 | 0.0 | 0.0 | 0.00 | 0.00 | 0.00 | 66 | 1011.4 |
| 20260905200507 | 95 | 260 | 0.0 | 0.0 | 0.00 | 0.00 | 0.00 | 64 | 1011.4 |
| 20260905200401 | 95 | 260 | 0.0 | 0.0 | 0.00 | 0.00 | 0.00 | 65 | 1011.4 |
| 20260905200201 | 95 | 260 | 0.0 | 3.0 | 0.00 | 0.00 | 0.00 | 64 | 1011.4 |
| 20260905200003 | 95 | 260 | 0.0 | 3.0 | 0.00 | 0.00 | 0.00 | 64 | 1011.4 |
| 20260905195802 | 94 | 259 | 0.0 | 3.0 | 0.00 | 0.00 | 0.00 | 62 | 1011.4 |
| 20260905195701 | 94 | 259 | 0.0 | 3.0 | 0.00 | 0.00 | 0.00 | 62 | 1011.4 |
| 20260905195500 | 94 | 259 | 0.0 | 3.0 | 0.00 | 0.00 | 0.00 | 63 | 1011.3 |
| 20260905195301 | 94 | 275 | 0.0 | 1.0 | 0.00 | 0.00 | 0.00 | 65 | 1011.3 |
| 20260905195201 | 94 | 275 | 0.0 | 1.0 | 0.00 | 0.00 | 0.00 | 64 | 1011.3 |
| 20260905195101 | 94 | 275 | 0.0 | 1.0 | 0.00 | 0.00 | 0.00 | 63 | 1011.2 |
| 20260905195004 | 94 | 275 | 0.0 | 1.0 | 0.00 | 0.00 | 0.00 | 62 | 1011.2 |
| 20260905194902 | 94 | 275 | 0.0 | 1.0 | 0.00 | 0.00 | 0.00 | 63 | 1011.2 |
| 20260905194801 | 94 | 248 | 0.0 | 1.0 | 0.00 | 0.00 | 0.00 | 63 | 1011.2 |
| 20260905194702 | 94 | 248 | 0.0 | 1.0 | 0.00 | 0.00 | 0.00 | 62 | 1011.3 |
| 20260905194603 | 94 | 248 | 0.0 | 1.0 | 0.00 | 0.00 | 0.00 | 63 | 1011.3 |
| 20260905194501 | 94 | 248 | 0.0 | 1.0 | 0.00 | 0.00 | 0.00 | 63 | 1011.4 |
| 20260905194402 | 94 | 321 | 0.0 | 1.0 | 0.00 | 0.00 | 0.00 | 64 | 1011.3 |
| 20260905194302 | 94 | 321 | 0.0 | 1.0 | 0.00 | 0.00 | 0.00 | 65 | 1011.3 |
| 20260905194202 | 94 | 321 | 0.0 | 1.0 | 0.00 | 0.00 | 0.00 | 64 | 1011.4 |
| 20260905194101 | 94 | 322 | 0.0 | 1.0 | 0.00 | 0.00 | 0.00 | 64 | 1011.4 |
| 20260905194001 | 94 | 237 | 0.0 | 1.0 | 0.00 | 0.00 | 0.00 | 64 | 1011.4 |
| 20260905193803 | 94 | 271 | 0.0 | 0.0 | 0.00 | 0.00 | 0.00 | 63 | 1011.5 |
| 20260905193601 | 94 | 269 | 0.0 | 0.0 | 0.00 | 0.00 | 0.00 | 64 | 1011.5 |
| 20260905193501 | 94 | 269 | 0.0 | 0.0 | 0.00 | 0.00 | 0.00 | 64 | 1011.5 |
| 20260905193403 | 93 | 270 | 0.0 | 0.0 | 0.00 | 0.00 | 0.00 | 65 | 1011.6 |
| 20260905193300 | 93 | 270 | 0.0 | 0.0 | 0.00 | 0.00 | 0.00 | 64 | 1011.6 |
| 20260905193201 | 93 | 270 | 0.0 | 0.0 | 0.00 | 0.00 | 0.00 | 65 | 1011.5 |
| 20260905193004 | 93 | 269 | 0.0 | 0.0 | 0.00 | 0.00 | 0.00 | 63 | 1011.6 |
| 20260905192901 | 93 | 268 | 0.0 | 0.0 | 0.00 | 0.00 | 0.00 | 64 | 1011.5 |
| 20260905192801 | 93 | 268 | 0.0 | 0.0 | 0.00 | 0.00 | 0.00 | 66 | 1011.6 |
| 20260905192701 | 93 | 268 | 0.0 | 0.0 | 0.00 | 0.00 | 0.00 | 66 | 1011.6 |
| 20260905192604 | 93 | 269 | 0.0 | 3.0 | 0.00 | 0.00 | 0.00 | 66 | 1011.6 |
| 20260905192501 | 93 | 269 | 0.0 | 3.0 | 0.00 | 0.00 | 0.00 | 66 | 1011.6 |
| 20260905192301 | 93 | 269 | 0.0 | 3.0 | 0.00 | 0.00 | 0.00 | 67 | 1011.6 |
| 20260905192202 | 93 | 269 | 0.0 | 3.0 | 0.00 | 0.00 | 0.00 | 67 | 1011.6 |
| 20260905192101 | 93 | 269 | 0.0 | 3.0 | 0.00 | 0.00 | 0.00 | 67 | 1011.6 |
| 20260905192001 | 93 | 264 | 0.0 | 3.0 | 0.00 | 0.00 | 0.00 | 66 | 1011.6 |
| 20260905191803 | 92 | 247 | 0.0 | 3.0 | 0.00 | 0.00 | 0.00 | 67 | 1011.5 |
| 20260905191701 | 92 | 50 | 0.0 | 1.0 | 0.00 | 0.00 | 0.00 | 66 | 1011.6 |
| 20260905191501 | 92 | 51 | 0.0 | 1.0 | 0.00 | 0.00 | 0.00 | 67 | 1011.7 |
| 20260905191404 | 92 | 51 | 0.0 | 1.0 | 0.00 | 0.00 | 0.00 | 65 | 1011.7 |
| 20260905191200 | 92 | 51 | 0.0 | 0.0 | 0.00 | 0.00 | 0.00 | 67 | 1011.7 |
| 20260905191003 | 92 | 306 | 0.0 | 0.0 | 0.00 | 0.00 | 0.00 | 64 | 1011.8 |
| 20260905190901 | 92 | 306 | 0.0 | 0.0 | 0.00 | 0.00 | 0.00 | 64 | 1011.8 |
| 20260905190800 | 92 | 306 | 0.0 | 0.0 | 0.00 | 0.00 | 0.00 | 66 | 1011.8 |
| 20260905190603 | 92 | 300 | 0.0 | 0.0 | 0.00 | 0.00 | 0.00 | 68 | 1011.8 |
| 20260905190501 | 92 | 300 | 0.0 | 0.0 | 0.00 | 0.00 | 0.00 | 68 | 1011.9 |
| 20260905190400 | 92 | 300 | 0.0 | 0.0 | 0.00 | 0.00 | 0.00 | 67 | 1011.9 |
| 20260905190301 | 92 | 300 | 0.0 | 0.0 | 0.00 | 0.00 | 0.00 | 67 | 1011.9 |
| 20260905190204 | 92 | 300 | 0.0 | 0.0 | 0.00 | 0.00 | 0.00 | 68 | 1011.9 |
| 20260905190004 | 92 | 303 | 0.0 | 0.0 | 0.00 | 0.00 | 0.00 | 66 | 1011.9 |
| 20260905185901 | 93 | 303 | 0.0 | 0.0 | 0.00 | 0.00 | 0.00 | 65 | 1011.9 |
| 20260905185700 | 93 | 302 | 0.0 | 0.0 | 0.00 | 0.00 | 0.00 | 66 | 1012.0 |
| 20260905185502 | 93 | 355 | 0.0 | 0.0 | 0.00 | 0.00 | 0.00 | 67 | 1012.0 |
| 20260905185401 | 93 | 308 | 0.0 | 0.0 | 0.00 | 0.00 | 0.00 | 67 | 1012.1 |
| 20260905185305 | 93 | 306 | 0.0 | 0.0 | 0.00 | 0.00 | 0.00 | 69 | 1012.1 |
| 20260905185200 | 93 | 306 | 0.0 | 0.0 | 0.00 | 0.00 | 0.00 | 66 | 1012.1 |
| 20260905185103 | 93 | 306 | 0.0 | 0.0 | 0.00 | 0.00 | 0.00 | 65 | 1012.2 |
| 20260905185001 | 93 | 307 | 0.0 | 0.0 | 0.00 | 0.00 | 0.00 | 64 | 1012.2 |
| 20260905184901 | 93 | 299 | 0.0 | 0.0 | 0.00 | 0.00 | 0.00 | 64 | 1012.1 |
| 20260905184800 | 93 | 299 | 0.0 | 0.0 | 0.00 | 0.00 | 0.00 | 65 | 1012.1 |
| 20260905184704 | 93 | 299 | 0.0 | 0.0 | 0.00 | 0.00 | 0.00 | 64 | 1012.1 |
| 20260905184601 | 93 | 299 | 0.0 | 0.0 | 0.00 | 0.00 | 0.00 | 64 | 1012.2 |
| 20260905184501 | 93 | 299 | 0.0 | 0.0 | 0.00 | 0.00 | 0.00 | 68 | 1012.1 |
| 20260905184401 | 93 | 299 | 0.0 | 0.0 | 0.00 | 0.00 | 0.00 | 68 | 1012.1 |
| 20260905184303 | 93 | 332 | 0.0 | 0.0 | 0.00 | 0.00 | 0.00 | 68 | 1012.1 |
| 20260905184201 | 93 | 320 | 0.0 | 0.0 | 0.00 | 0.00 | 0.00 | 68 | 1012.2 |
| 20260905184100 | 93 | 251 | 0.0 | 0.0 | 0.00 | 0.00 | 0.00 | 68 | 1012.3 |
| 20260905184001 | 93 | 250 | 0.0 | 0.0 | 0.00 | 0.00 | 0.00 | 68 | 1012.2 |
| 20260905183904 | 93 | 250 | 0.0 | 0.0 | 0.00 | 0.00 | 0.00 | 67 | 1012.3 |
| 20260905183801 | 93 | 250 | 0.0 | 0.0 | 0.00 | 0.00 | 0.00 | 66 | 1012.4 |
| 20260905183603 | 93 | 250 | 0.0 | 0.0 | 0.00 | 0.00 | 0.00 | 63 | 1012.4 |
| 20260905183500 | 93 | 248 | 0.0 | 0.0 | 0.00 | 0.00 | 0.00 | 63 | 1012.4 |
| 20260905183301 | 93 | 248 | 0.0 | 0.0 | 0.00 | 0.00 | 0.00 | 64 | 1012.5 |
| 20260905183101 | 93 | 325 | 0.0 | 0.0 | 0.00 | 0.00 | 0.00 | 65 | 1012.5 |
| 20260905183001 | 93 | 325 | 0.0 | 0.0 | 0.00 | 0.00 | 0.00 | 66 | 1012.5 |
| 20260905182901 | 93 | 325 | 0.0 | 0.0 | 0.00 | 0.00 | 0.00 | 66 | 1012.5 |
| 20260905182702 | 93 | 325 | 0.0 | 0.0 | 0.00 | 0.00 | 0.00 | 65 | 1012.5 |
| 20260905182501 | 93 | 285 | 0.0 | 0.0 | 0.00 | 0.00 | 0.00 | 63 | 1012.5 |
| 20260905182402 | 93 | 285 | 0.0 | 0.0 | 0.00 | 0.00 | 0.00 | 64 | 1012.6 |
| 20260905182301 | 94 | 285 | 0.0 | 0.0 | 0.00 | 0.00 | 0.00 | 65 | 1012.6 |
| 20260905182200 | 94 | 285 | 0.0 | 0.0 | 0.00 | 0.00 | 0.00 | 64 | 1012.6 |
| 20260905182101 | 94 | 285 | 0.0 | 0.0 | 0.00 | 0.00 | 0.00 | 65 | 1012.6 |
| 20260905182003 | 94 | 285 | 0.0 | 0.0 | 0.00 | 0.00 | 0.00 | 65 | 1012.6 |
| 20260905181901 | 94 | 285 | 0.0 | 1.0 | 0.00 | 0.00 | 0.00 | 64 | 1012.6 |
| 20260905181701 | 94 | 281 | 0.0 | 1.0 | 0.00 | 0.00 | 0.00 | 66 | 1012.5 |
| 20260905181604 | 94 | 281 | 0.0 | 1.0 | 0.00 | 0.00 | 0.00 | 65 | 1012.5 |
| 20260905181501 | 94 | 281 | 0.0 | 1.0 | 0.00 | 0.00 | 0.00 | 63 | 1012.5 |
| 20260905181402 | 94 | 281 | 0.0 | 1.0 | 0.00 | 0.00 | 0.00 | 63 | 1012.5 |
| 20260905181301 | 94 | 276 | 0.0 | 1.0 | 0.00 | 0.00 | 0.00 | 65 | 1012.5 |
| 20260905181204 | 94 | 276 | 0.0 | 1.0 | 0.00 | 0.00 | 0.00 | 63 | 1012.5 |
| 20260905181101 | 94 | 275 | 0.0 | 1.0 | 0.00 | 0.00 | 0.00 | 63 | 1012.6 |
| 20260905181001 | 94 | 283 | 0.0 | 0.0 | 0.00 | 0.00 | 0.00 | 65 | 1012.6 |
| 20260905180901 | 94 | 282 | 0.0 | 0.0 | 0.00 | 0.00 | 0.00 | 63 | 1012.6 |
| 20260905180804 | 94 | 244 | 0.0 | 0.0 | 0.00 | 0.00 | 0.00 | 63 | 1012.5 |
| 20260905180700 | 94 | 244 | 0.0 | 0.0 | 0.00 | 0.00 | 0.00 | 65 | 1012.5 |
| 20260905180601 | 94 | 244 | 0.0 | 0.0 | 0.00 | 0.00 | 0.00 | 65 | 1012.5 |
| 20260905180501 | 94 | 231 | 0.0 | 0.0 | 0.00 | 0.00 | 0.00 | 64 | 1012.6 |
| 20260905180402 | 94 | 229 | 0.0 | 0.0 | 0.00 | 0.00 | 0.00 | 65 | 1012.5 |
| 20260905180302 | 94 | 88 | 0.0 | 0.0 | 0.00 | 0.00 | 0.00 | 66 | 1012.6 |
| 20260905180004 | 94 | 88 | 0.0 | 1.0 | 0.00 | 0.00 | 0.00 | 66 | 1012.6 |
| 20260905175800 | 94 | 88 | 0.0 | 1.0 | 0.00 | 0.00 | 0.00 | 66 | 1012.6 |
| 20260905175702 | 94 | 88 | 0.0 | 1.0 | 0.00 | 0.00 | 0.00 | 67 | 1012.7 |
| 20260905175600 | 94 | 88 | 0.0 | 1.0 | 0.00 | 0.00 | 0.00 | 66 | 1012.6 |
| 20260905175400 | 93 | 88 | 0.0 | 1.0 | 0.00 | 0.00 | 0.00 | 65 | 1012.7 |
| 20260905175306 | 93 | 91 | 0.0 | 1.0 | 0.00 | 0.00 | 0.00 | 63 | 1012.7 |
| 20260905175200 | 93 | 86 | 0.0 | 0.0 | 0.00 | 0.00 | 0.00 | 63 | 1012.6 |
| 20260905175100 | 93 | 86 | 0.0 | 0.0 | 0.00 | 0.00 | 0.00 | 63 | 1012.7 |
| 20260905174902 | 93 | 122 | 0.0 | 0.0 | 0.00 | 0.00 | 0.00 | 64 | 1012.7 |
| 20260905174800 | 93 | 121 | 0.0 | 0.0 | 0.00 | 0.00 | 0.00 | 65 | 1012.7 |
| 20260905174659 | 93 | 121 | 0.0 | 0.0 | 0.00 | 0.00 | 0.00 | 65 | 1012.7 |
| 20260905174600 | 93 | 121 | 0.0 | 0.0 | 0.00 | 0.00 | 0.00 | 66 | 1012.7 |
| 20260905174502 | 93 | 119 | 0.0 | 0.0 | 0.00 | 0.00 | 0.00 | 66 | 1012.8 |
| 20260905174400 | 93 | 74 | 0.0 | 0.0 | 0.00 | 0.00 | 0.00 | 65 | 1012.8 |
| 20260905174302 | 93 | 42 | 0.0 | 0.0 | 0.00 | 0.00 | 0.00 | 64 | 1012.9 |
| 20260905174159 | 92 | 10 | 0.0 | 0.0 | 0.00 | 0.00 | 0.00 | 65 | 1012.9 |
| 20260905174102 | 92 | 11 | 0.0 | 0.0 | 0.00 | 0.00 | 0.00 | 64 | 1012.8 |
| 20260905173959 | 92 | 13 | 0.0 | 0.0 | 0.00 | 0.00 | 0.00 | 64 | 1012.9 |
| 20260905173759 | 92 | 13 | 0.0 | 0.0 | 0.00 | 0.00 | 0.00 | 64 | 1012.9 |
| 20260905173702 | 92 | 13 | 0.0 | 0.0 | 0.00 | 0.00 | 0.00 | 64 | 1012.9 |
| 20260905173559 | 92 | 13 | 0.0 | 0.0 | 0.00 | 0.00 | 0.00 | 64 | 1012.9 |
| 20260905173500 | 92 | 360 | 0.0 | 0.0 | 0.00 | 0.00 | 0.00 | 65 | 1012.9 |
| 20260905173359 | 92 | 360 | 0.0 | 0.0 | 0.00 | 0.00 | 0.00 | 65 | 1012.9 |
| 20260905173301 | 92 | 313 | 0.0 | 0.0 | 0.00 | 0.00 | 0.00 | 65 | 1012.8 |
| 20260905173200 | 92 | 313 | 0.0 | 0.0 | 0.00 | 0.00 | 0.00 | 65 | 1012.9 |
| 20260905173059 | 92 | 313 | 0.0 | 0.0 | 0.00 | 0.00 | 0.00 | 65 | 1012.9 |
| 20260905172902 | 92 | 313 | 0.0 | 0.0 | 0.00 | 0.00 | 0.00 | 64 | 1012.9 |
| 20260905172800 | 92 | 313 | 0.0 | 0.0 | 0.00 | 0.00 | 0.00 | 63 | 1013.0 |
| 20260905172659 | 92 | 313 | 0.0 | 0.0 | 0.00 | 0.00 | 0.00 | 63 | 1012.9 |
| 20260905172600 | 92 | 355 | 0.0 | 0.0 | 0.00 | 0.00 | 0.00 | 63 | 1013.0 |
| 20260905172503 | 92 | 340 | 0.0 | 0.0 | 0.00 | 0.00 | 0.00 | 63 | 1013.0 |
| 20260905172400 | 92 | 340 | 0.0 | 0.0 | 0.00 | 0.00 | 0.00 | 64 | 1013.0 |
| 20260905172200 | 91 | 340 | 0.0 | 1.0 | 0.00 | 0.00 | 0.00 | 64 | 1013.1 |
| 20260905172000 | 91 | 336 | 0.0 | 1.0 | 0.00 | 0.00 | 0.00 | 66 | 1013.1 |
| 20260905171900 | 91 | 336 | 0.0 | 1.0 | 0.00 | 0.00 | 0.00 | 65 | 1013.0 |
| 20260905171800 | 91 | 336 | 0.0 | 1.0 | 0.00 | 0.00 | 0.00 | 65 | 1013.1 |
| 20260905171702 | 91 | 336 | 0.0 | 1.0 | 0.00 | 0.00 | 0.00 | 66 | 1013.0 |
| 20260905171559 | 91 | 306 | 0.0 | 1.0 | 0.00 | 0.00 | 0.00 | 65 | 1013.1 |
| 20260905171500 | 91 | 306 | 0.0 | 1.0 | 0.00 | 0.00 | 0.00 | 65 | 1013.1 |
| 20260905171004 | 91 | 115 | 0.0 | 9.0 | 0.00 | 0.00 | 0.00 | 64 | 1013.1 |
| 20260905170501 | 91 | 153 | 0.0 | 9.0 | 0.00 | 0.00 | 0.00 | 65 | 1013.2 |
| 20260905170300 | 91 | 157 | 0.0 | 9.0 | 0.00 | 0.00 | 0.00 | 66 | 1013.1 |
| 20260905165905 | 91 | 130 | 0.0 | 3.0 | 0.00 | 0.00 | 0.00 | 66 | 1013.3 |
| 20260905165501 | 90 | 134 | 0.0 | 8.0 | 0.00 | 0.00 | 0.00 | 66 | 1013.4 |
| 20260905165410 | 90 | 146 | 0.0 | 8.0 | 0.00 | 0.00 | 0.00 | 66 | 1013.4 |
| 20260905165306 | 90 | 138 | 0.0 | 8.0 | 0.00 | 0.00 | 0.00 | 66 | 1013.5 |
| 20260905165208 | 90 | 151 | 0.0 | 8.0 | 0.00 | 0.00 | 0.00 | 66 | 1013.4 |
| 20260905165105 | 90 | 119 | 0.0 | 8.0 | 0.00 | 0.00 | 0.00 | 66 | 1013.5 |
| 20260905164901 | 90 | 119 | 0.0 | 8.0 | 0.00 | 0.00 | 0.00 | 66 | 1013.5 |
| 20260905164812 | 90 | 142 | 0.0 | 8.0 | 0.00 | 0.00 | 0.00 | 66 | 1013.5 |
| 20260905164703 | 90 | 156 | 0.0 | 0.0 | 0.00 | 0.00 | 0.00 | 67 | 1013.5 |
| 20260905164606 | 90 | 155 | 0.0 | 0.0 | 0.00 | 0.00 | 0.00 | 67 | 1013.6 |
| 20260905164503 | 90 | 155 | 0.0 | 0.0 | 0.00 | 0.00 | 0.00 | 68 | 1013.7 |
| 20260905164419 | 90 | 155 | 0.0 | 0.0 | 0.00 | 0.00 | 0.00 | 68 | 1013.7 |
| 20260905164307 | 90 | 155 | 0.0 | 0.0 | 0.00 | 0.00 | 0.00 | 69 | 1013.6 |
| 20260905164204 | 89 | 188 | 0.0 | 0.0 | 0.00 | 0.00 | 0.00 | 68 | 1013.7 |
| 20260905164113 | 89 | 188 | 0.0 | 0.0 | 0.00 | 0.00 | 0.00 | 67 | 1013.7 |
| 20260905164008 | 89 | 188 | 0.0 | 0.0 | 0.00 | 0.00 | 0.00 | 67 | 1013.7 |
| 20260905163906 | 89 | 188 | 0.0 | 0.0 | 0.00 | 0.00 | 0.00 | 67 | 1013.8 |
| 20260905163801 | 89 | 186 | 0.0 | 8.0 | 0.00 | 0.00 | 0.00 | 67 | 1013.7 |
| 20260905163701 | 89 | 159 | 0.0 | 8.0 | 0.00 | 0.00 | 0.00 | 69 | 1013.7 |
| 20260905163609 | 89 | 159 | 0.0 | 8.0 | 0.00 | 0.00 | 0.00 | 68 | 1013.7 |
| 20260905163501 | 89 | 158 | 0.0 | 8.0 | 0.00 | 0.00 | 0.00 | 69 | 1013.7 |
| 20260905163401 | 89 | 158 | 0.0 | 8.0 | 0.00 | 0.00 | 0.00 | 69 | 1013.7 |
| 20260905163101 | 89 | 159 | 0.0 | 8.0 | 0.00 | 0.00 | 0.00 | 69 | 1013.6 |
| 20260905163006 | 89 | 157 | 0.0 | 8.0 | 0.00 | 0.00 | 0.00 | 68 | 1013.6 |
| 20260905162901 | 88 | 153 | 0.0 | 3.0 | 0.00 | 0.00 | 0.00 | 70 | 1013.6 |
| 20260905162807 | 88 | 169 | 0.0 | 3.0 | 0.00 | 0.00 | 0.00 | 69 | 1013.6 |
| 20260905162701 | 88 | 117 | 0.0 | 3.0 | 0.00 | 0.00 | 0.00 | 68 | 1013.6 |
| 20260905162601 | 88 | 148 | 0.0 | 3.0 | 0.00 | 0.00 | 0.00 | 69 | 1013.7 |
| 20260905162504 | 88 | 142 | 0.0 | 3.0 | 0.00 | 0.00 | 0.00 | 69 | 1013.6 |
| 20260905162402 | 88 | 130 | 0.0 | 3.0 | 0.00 | 0.00 | 0.00 | 69 | 1013.7 |
| 20260905162301 | 88 | 130 | 0.0 | 3.0 | 0.00 | 0.00 | 0.00 | 69 | 1013.7 |
| 20260905162201 | 88 | 178 | 0.0 | 3.0 | 0.00 | 0.00 | 0.00 | 69 | 1013.7 |
| 20260905162103 | 88 | 107 | 0.0 | 3.0 | 0.00 | 0.00 | 0.00 | 70 | 1013.6 |
| 20260905161901 | 88 | 57 | 0.0 | 5.0 | 0.00 | 0.00 | 0.00 | 71 | 1013.6 |
| 20260905161801 | 87 | 81 | 0.0 | 5.0 | 0.00 | 0.00 | 0.00 | 71 | 1013.5 |
| 20260905161601 | 87 | 140 | 0.0 | 5.0 | 0.00 | 0.00 | 0.00 | 70 | 1013.6 |
| 20260905161501 | 87 | 148 | 0.0 | 5.0 | 0.00 | 0.00 | 0.00 | 71 | 1013.5 |
| 20260905161403 | 87 | 126 | 0.0 | 8.0 | 0.00 | 0.00 | 0.00 | 71 | 1013.6 |
| 20260905161308 | 87 | 67 | 0.0 | 8.0 | 0.00 | 0.00 | 0.00 | 70 | 1013.6 |
| 20260905161201 | 87 | 66 | 0.0 | 8.0 | 0.00 | 0.00 | 0.00 | 70 | 1013.5 |
| 20260905161102 | 87 | 158 | 0.0 | 8.0 | 0.00 | 0.00 | 0.00 | 71 | 1013.5 |
| 20260905161003 | 87 | 141 | 0.0 | 8.0 | 0.00 | 0.00 | 0.00 | 70 | 1013.5 |
| 20260905160701 | 87 | 119 | 0.0 | 8.0 | 0.00 | 0.00 | 0.00 | 70 | 1013.5 |
| 20260905160604 | 87 | 153 | 0.0 | 8.0 | 0.00 | 0.00 | 0.00 | 70 | 1013.6 |
| 20260905160501 | 87 | 167 | 0.0 | 4.0 | 0.00 | 0.00 | 0.00 | 71 | 1013.5 |
| 20260905160301 | 86 | 151 | 0.0 | 2.0 | 0.00 | 0.00 | 0.00 | 71 | 1013.6 |
| 20260905160203 | 86 | 132 | 0.0 | 2.0 | 0.00 | 0.00 | 0.00 | 71 | 1013.6 |
| 20260905160101 | 86 | 132 | 0.0 | 6.0 | 0.00 | 0.00 | 0.00 | 71 | 1013.6 |
| 20260905160004 | 86 | 132 | 0.0 | 6.0 | 0.00 | 0.00 | 0.00 | 72 | 1013.6 |
| 20260905155902 | 86 | 67 | 0.0 | 6.0 | 0.00 | 0.00 | 0.00 | 72 | 1013.6 |
| 20260905155701 | 86 | 92 | 0.0 | 6.0 | 0.00 | 0.00 | 0.00 | 72 | 1013.5 |
| 20260905155401 | 86 | 99 | 1.0 | 7.0 | 0.00 | 0.00 | 0.00 | 71 | 1013.7 |
| 20260905155301 | 85 | 159 | 1.0 | 8.0 | 0.00 | 0.00 | 0.00 | 71 | 1013.7 |
| 20260905155201 | 85 | 146 | 1.0 | 8.0 | 0.00 | 0.00 | 0.00 | 73 | 1013.7 |
| 20260905155001 | 85 | 119 | 1.0 | 10.0 | 0.00 | 0.00 | 0.00 | 73 | 1013.7 |
| 20260905154901 | 85 | 188 | 1.0 | 10.0 | 0.00 | 0.00 | 0.00 | 72 | 1013.6 |
| 20260905154801 | 85 | 189 | 1.0 | 10.0 | 0.00 | 0.00 | 0.00 | 71 | 1013.7 |
| 20260905154703 | 85 | 145 | 1.0 | 10.0 | 0.00 | 0.00 | 0.00 | 71 | 1013.8 |
| 20260905154601 | 85 | 153 | 1.0 | 10.0 | 0.00 | 0.00 | 0.00 | 71 | 1013.8 |
| 20260905154502 | 85 | 169 | 1.0 | 10.0 | 0.00 | 0.00 | 0.00 | 70 | 1013.9 |
| 20260905154401 | 85 | 148 | 1.0 | 10.0 | 0.00 | 0.00 | 0.00 | 70 | 1013.9 |
| 20260905154303 | 85 | 156 | 1.0 | 10.0 | 0.00 | 0.00 | 0.00 | 70 | 1013.9 |
| 20260905154200 | 85 | 155 | 1.0 | 11.0 | 0.00 | 0.00 | 0.00 | 71 | 1013.9 |
| 20260905154102 | 85 | 129 | 1.0 | 11.0 | 0.00 | 0.00 | 0.00 | 71 | 1014.0 |
| 20260905153902 | 85 | 182 | 1.0 | 11.0 | 0.00 | 0.00 | 0.00 | 71 | 1014.1 |
| 20260905153601 | 85 | 160 | 1.0 | 11.0 | 0.00 | 0.00 | 0.00 | 73 | 1014.2 |
| 20260905153401 | 84 | 168 | 1.0 | 11.0 | 0.00 | 0.00 | 0.00 | 73 | 1014.2 |
| 20260905153201 | 84 | 172 | 0.0 | 11.0 | 0.00 | 0.00 | 0.00 | 74 | 1014.1 |
| 20260905153105 | 84 | 171 | 0.0 | 11.0 | 0.00 | 0.00 | 0.00 | 74 | 1014.0 |
| 20260905153002 | 84 | 171 | 0.0 | 11.0 | 0.00 | 0.00 | 0.00 | 74 | 1014.1 |
| 20260905152901 | 84 | 175 | 0.0 | 11.0 | 0.00 | 0.00 | 0.00 | 74 | 1014.0 |
| 20260905152801 | 84 | 177 | 0.0 | 11.0 | 0.00 | 0.00 | 0.00 | 74 | 1014.1 |
| 20260905152704 | 84 | 139 | 0.0 | 11.0 | 0.00 | 0.00 | 0.00 | 75 | 1014.1 |
| 20260905152602 | 84 | 195 | 0.0 | 5.0 | 0.00 | 0.00 | 0.00 | 76 | 1014.0 |
| 20260905152501 | 83 | 195 | 0.0 | 5.0 | 0.00 | 0.00 | 0.00 | 75 | 1014.0 |
| 20260905152306 | 83 | 195 | 1.0 | 8.0 | 0.00 | 0.00 | 0.00 | 76 | 1013.9 |
| 20260905152201 | 83 | 195 | 1.0 | 8.0 | 0.00 | 0.00 | 0.00 | 76 | 1014.0 |
| 20260905152101 | 83 | 150 | 1.0 | 8.0 | 0.00 | 0.00 | 0.00 | 76 | 1013.9 |
| 20260905152001 | 83 | 111 | 1.0 | 8.0 | 0.00 | 0.00 | 0.00 | 76 | 1013.9 |
| 20260905151903 | 83 | 111 | 1.0 | 8.0 | 0.00 | 0.00 | 0.00 | 76 | 1013.9 |
| 20260905151801 | 83 | 111 | 1.0 | 8.0 | 0.00 | 0.00 | 0.00 | 76 | 1013.9 |
| 20260905151700 | 83 | 111 | 1.0 | 8.0 | 0.00 | 0.00 | 0.00 | 75 | 1013.9 |
| 20260905151502 | 83 | 138 | 0.0 | 8.0 | 0.00 | 0.00 | 0.00 | 75 | 1014.0 |
| 20260905151401 | 83 | 145 | 0.0 | 1.0 | 0.00 | 0.00 | 0.00 | 77 | 1013.9 |
| 20260905151301 | 82 | 147 | 0.0 | 1.0 | 0.00 | 0.00 | 0.00 | 77 | 1013.9 |
| 20260905151105 | 82 | 90 | 0.0 | 8.0 | 0.00 | 0.00 | 0.00 | 77 | 1014.0 |
| 20260905151001 | 82 | 63 | 0.0 | 8.0 | 0.00 | 0.00 | 0.00 | 77 | 1014.0 |
| 20260905150901 | 82 | 140 | 0.0 | 8.0 | 0.00 | 0.00 | 0.00 | 78 | 1013.9 |
| 20260905150701 | 82 | 134 | 0.0 | 8.0 | 0.00 | 0.00 | 0.00 | 77 | 1013.8 |
| 20260905150602 | 82 | 142 | 0.0 | 8.0 | 0.00 | 0.00 | 0.00 | 78 | 1013.8 |
| 20260905150501 | 82 | 143 | 0.0 | 8.0 | 0.00 | 0.00 | 0.00 | 78 | 1013.8 |
| 20260905150402 | 82 | 145 | 1.0 | 8.0 | 0.00 | 0.00 | 0.00 | 78 | 1013.8 |
| 20260905150302 | 82 | 116 | 2.0 | 14.0 | 0.00 | 0.00 | 0.00 | 79 | 1013.8 |
| 20260905150200 | 82 | 160 | 1.0 | 14.0 | 0.00 | 0.00 | 0.00 | 78 | 1013.8 |
| 20260905150101 | 82 | 160 | 1.0 | 14.0 | 0.00 | 0.00 | 0.00 | 79 | 1013.7 |
| 20260905150005 | 81 | 168 | 2.0 | 14.0 | 0.00 | 0.00 | 0.00 | 79 | 1013.7 |
| 20260905145901 | 81 | 138 | 2.0 | 14.0 | 0.00 | 0.00 | 0.00 | 78 | 1013.8 |
| 20260905145801 | 81 | 170 | 2.0 | 14.0 | 0.00 | 0.00 | 0.00 | 79 | 1013.7 |
| 20260905145701 | 81 | 140 | 2.0 | 14.0 | 0.00 | 0.00 | 0.00 | 78 | 1013.7 |
| 20260905145604 | 81 | 168 | 3.0 | 14.0 | 0.00 | 0.00 | 0.00 | 77 | 1013.8 |
| 20260905145501 | 81 | 158 | 3.0 | 15.0 | 0.00 | 0.00 | 0.00 | 77 | 1013.8 |
| 20260905145401 | 81 | 140 | 3.0 | 15.0 | 0.00 | 0.00 | 0.00 | 77 | 1013.8 |
| 20260905145301 | 81 | 169 | 3.0 | 15.0 | 0.00 | 0.00 | 0.00 | 78 | 1013.7 |
| 20260905145204 | 81 | 135 | 3.0 | 15.0 | 0.00 | 0.00 | 0.00 | 78 | 1013.8 |
| 20260905144901 | 81 | 118 | 3.0 | 15.0 | 0.00 | 0.00 | 0.00 | 78 | 1013.9 |
| 20260905144701 | 81 | 132 | 3.0 | 15.0 | 0.00 | 0.00 | 0.00 | 77 | 1014.0 |
| 20260905144600 | 81 | 147 | 2.0 | 14.0 | 0.00 | 0.00 | 0.00 | 77 | 1013.9 |
| 20260905144501 | 81 | 157 | 2.0 | 14.0 | 0.00 | 0.00 | 0.00 | 78 | 1013.9 |
| 20260905144403 | 81 | 161 | 2.0 | 14.0 | 0.00 | 0.00 | 0.00 | 78 | 1013.9 |
| 20260905144301 | 81 | 71 | 2.0 | 14.0 | 0.00 | 0.00 | 0.00 | 79 | 1013.9 |
| 20260905144201 | 81 | 144 | 2.0 | 13.0 | 0.00 | 0.00 | 0.00 | 78 | 1013.8 |
| 20260905144101 | 81 | 77 | 2.0 | 13.0 | 0.00 | 0.00 | 0.00 | 79 | 1013.9 |
| 20260905144003 | 81 | 148 | 2.0 | 13.0 | 0.00 | 0.00 | 0.00 | 78 | 1013.9 |
| 20260905143901 | 81 | 124 | 2.0 | 13.0 | 0.00 | 0.00 | 0.00 | 78 | 1014.0 |
| 20260905143801 | 81 | 18 | 2.0 | 13.0 | 0.00 | 0.00 | 0.00 | 78 | 1014.0 |
| 20260905143605 | 81 | 138 | 2.0 | 13.0 | 0.00 | 0.00 | 0.00 | 78 | 1013.9 |
| 20260905143401 | 81 | 159 | 2.0 | 12.0 | 0.00 | 0.00 | 0.00 | 78 | 1014.0 |
| 20260905143302 | 81 | 174 | 1.0 | 12.0 | 0.00 | 0.00 | 0.00 | 80 | 1014.1 |
| 20260905143204 | 81 | 94 | 0.0 | 9.0 | 0.00 | 0.00 | 0.00 | 80 | 1014.1 |
| 20260905143101 | 81 | 131 | 1.0 | 9.0 | 0.00 | 0.00 | 0.00 | 79 | 1014.0 |
| 20260905143002 | 80 | 153 | 1.0 | 9.0 | 0.00 | 0.00 | 0.00 | 80 | 1014.1 |
| 20260905142901 | 80 | 150 | 1.0 | 9.0 | 0.00 | 0.00 | 0.00 | 80 | 1014.0 |
| 20260905142803 | 80 | 159 | 1.0 | 9.0 | 0.00 | 0.00 | 0.00 | 80 | 1014.0 |
| 20260905142601 | 80 | 167 | 1.0 | 11.0 | 0.00 | 0.00 | 0.00 | 80 | 1014.1 |
| 20260905142502 | 80 | 126 | 1.0 | 11.0 | 0.00 | 0.00 | 0.00 | 80 | 1014.1 |
| 20260905142403 | 80 | 95 | 2.0 | 11.0 | 0.00 | 0.00 | 0.00 | 80 | 1014.1 |
| 20260905142301 | 80 | 134 | 2.0 | 11.0 | 0.00 | 0.00 | 0.00 | 80 | 1014.0 |
| 20260905142003 | 80 | 161 | 2.0 | 13.0 | 0.00 | 0.00 | 0.00 | 80 | 1014.1 |
| 20260905141900 | 80 | 108 | 2.0 | 13.0 | 0.00 | 0.00 | 0.00 | 80 | 1014.1 |
| 20260905141701 | 80 | 119 | 1.0 | 13.0 | 0.00 | 0.00 | 0.00 | 81 | 1014.2 |
| 20260905141501 | 80 | 103 | 1.0 | 13.0 | 0.00 | 0.00 | 0.00 | 82 | 1014.2 |
| 20260905141402 | 80 | 116 | 1.0 | 13.0 | 0.00 | 0.00 | 0.00 | 82 | 1014.3 |
| 20260905141204 | 79 | 94 | 1.0 | 10.0 | 0.00 | 0.00 | 0.00 | 82 | 1014.2 |
| 20260905141100 | 79 | 113 | 2.0 | 10.0 | 0.00 | 0.00 | 0.00 | 81 | 1014.2 |
| 20260905141001 | 79 | 148 | 2.0 | 13.0 | 0.00 | 0.00 | 0.00 | 82 | 1014.2 |
| 20260905140701 | 79 | 125 | 3.0 | 13.0 | 0.00 | 0.00 | 0.00 | 82 | 1014.0 |
| 20260905140501 | 79 | 84 | 3.0 | 13.0 | 0.00 | 0.00 | 0.00 | 82 | 1014.0 |
| 20260905140403 | 79 | 40 | 3.0 | 13.0 | 0.00 | 0.00 | 0.00 | 82 | 1014.1 |
| 20260905140301 | 79 | 167 | 3.0 | 13.0 | 0.00 | 0.00 | 0.00 | 82 | 1014.1 |
| 20260905140201 | 79 | 69 | 3.0 | 13.0 | 0.00 | 0.00 | 0.00 | 81 | 1014.0 |
| 20260905140007 | 79 | 150 | 2.0 | 13.0 | 0.00 | 0.00 | 0.00 | 82 | 1014.1 |
| 20260905135901 | 79 | 150 | 2.0 | 13.0 | 0.00 | 0.00 | 0.00 | 83 | 1014.0 |
| 20260905135801 | 79 | 125 | 2.0 | 13.0 | 0.00 | 0.00 | 0.00 | 83 | 1014.0 |
| 20260905135703 | 79 | 163 | 2.0 | 17.0 | 0.00 | 0.00 | 0.00 | 83 | 1014.0 |
| 20260905135601 | 79 | 154 | 2.0 | 17.0 | 0.00 | 0.00 | 0.00 | 83 | 1014.0 |
| 20260905135401 | 79 | 92 | 1.0 | 17.0 | 0.00 | 0.00 | 0.00 | 85 | 1014.0 |
| 20260905135306 | 78 | 142 | 1.0 | 17.0 | 0.00 | 0.00 | 0.00 | 85 | 1014.1 |
| 20260905135201 | 78 | 101 | 2.0 | 17.0 | 0.00 | 0.00 | 0.00 | 84 | 1014.1 |
| 20260905135101 | 78 | 142 | 2.0 | 17.0 | 0.00 | 0.00 | 0.00 | 85 | 1014.1 |
| 20260905135001 | 78 | 329 | 1.0 | 17.0 | 0.00 | 0.00 | 0.00 | 85 | 1014.1 |
| 20260905134801 | 78 | 86 | 1.0 | 10.0 | 0.00 | 0.00 | 0.00 | 86 | 1014.0 |
| 20260905134701 | 78 | 123 | 1.0 | 10.0 | 0.00 | 0.00 | 0.00 | 86 | 1014.1 |
| 20260905134601 | 78 | 169 | 1.0 | 10.0 | 0.00 | 0.00 | 0.00 | 86 | 1014.1 |
| 20260905134503 | 78 | 93 | 1.0 | 10.0 | 0.00 | 0.00 | 0.00 | 86 | 1014.1 |
| 20260905134301 | 78 | 123 | 1.0 | 10.0 | 0.00 | 0.00 | 0.00 | 87 | 1014.1 |
| 20260905134104 | 78 | 65 | 1.0 | 9.0 | 0.00 | 0.00 | 0.00 | 87 | 1014.1 |
| 20260905134001 | 78 | 146 | 1.0 | 10.0 | 0.00 | 0.00 | 0.00 | 87 | 1014.0 |
| 20260905133900 | 77 | 153 | 1.0 | 10.0 | 0.00 | 0.00 | 0.00 | 87 | 1014.0 |
| 20260905133801 | 77 | 84 | 1.0 | 10.0 | 0.00 | 0.00 | 0.00 | 88 | 1014.1 |
| 20260905133703 | 77 | 106 | 1.0 | 10.0 | 0.00 | 0.00 | 0.00 | 88 | 1014.1 |
| 20260905133601 | 77 | 88 | 1.0 | 10.0 | 0.00 | 0.00 | 0.00 | 88 | 1014.1 |
| 20260905133500 | 77 | 119 | 1.0 | 10.0 | 0.00 | 0.00 | 0.00 | 89 | 1014.1 |
| 20260905133400 | 77 | 142 | 1.0 | 10.0 | 0.00 | 0.00 | 0.00 | 89 | 1014.2 |
| 20260905133303 | 77 | 161 | 1.0 | 10.0 | 0.00 | 0.00 | 0.00 | 90 | 1014.1 |
| 20260905133201 | 77 | 120 | 1.0 | 10.0 | 0.00 | 0.00 | 0.00 | 90 | 1014.1 |
| 20260905133102 | 77 | 144 | 0.0 | 5.0 | 0.00 | 0.00 | 0.00 | 90 | 1014.2 |
| 20260905133001 | 77 | 145 | 0.0 | 5.0 | 0.00 | 0.00 | 0.00 | 90 | 1014.1 |
| 20260905132903 | 77 | 131 | 1.0 | 5.0 | 0.00 | 0.00 | 0.00 | 91 | 1014.1 |
| 20260905132801 | 77 | 148 | 1.0 | 7.0 | 0.00 | 0.00 | 0.00 | 91 | 1014.2 |
| 20260905132701 | 76 | 114 | 1.0 | 7.0 | 0.00 | 0.00 | 0.00 | 91 | 1014.1 |
| 20260905132601 | 76 | 51 | 1.0 | 7.0 | 0.00 | 0.00 | 0.00 | 92 | 1014.2 |
| 20260905132301 | 76 | 121 | 1.0 | 9.0 | 0.00 | 0.00 | 0.00 | 94 | 1014.1 |
| 20260905132201 | 76 | 103 | 1.0 | 9.0 | 0.00 | 0.00 | 0.00 | 94 | 1014.1 |
| 20260905132103 | 76 | 128 | 1.0 | 9.0 | 0.00 | 0.00 | 0.00 | 94 | 1014.1 |
| 20260905131801 | 76 | 120 | 1.0 | 9.0 | 0.00 | 0.00 | 0.00 | 95 | 1014.0 |
| 20260905131707 | 76 | 145 | 1.0 | 9.0 | 0.00 | 0.00 | 0.00 | 95 | 1014.0 |
| 20260905131602 | 76 | 145 | 1.0 | 9.0 | 0.00 | 0.00 | 0.00 | 95 | 1014.1 |
| 20260905131501 | 75 | 138 | 1.0 | 9.0 | 0.00 | 0.00 | 0.00 | 95 | 1014.1 |
| 20260905131403 | 75 | 94 | 0.0 | 10.0 | 0.00 | 0.00 | 0.00 | 95 | 1014.1 |
| 20260905131301 | 75 | 87 | 0.0 | 10.0 | 0.00 | 0.00 | 0.00 | 96 | 1014.1 |
| 20260905131201 | 75 | 89 | 0.0 | 10.0 | 0.00 | 0.00 | 0.00 | 96 | 1014.1 |
| 20260905131101 | 75 | 119 | 0.0 | 10.0 | 0.00 | 0.00 | 0.00 | 96 | 1014.2 |
| 20260905131003 | 75 | 124 | 0.0 | 5.0 | 0.00 | 0.00 | 0.00 | 96 | 1014.1 |
| 20260905130801 | 75 | 124 | 0.0 | 5.0 | 0.00 | 0.00 | 0.00 | 96 | 1014.0 |
| 20260905130700 | 75 | 146 | 0.0 | 5.0 | 0.00 | 0.00 | 0.00 | 96 | 1014.1 |
| 20260905130501 | 75 | 174 | 0.0 | 5.0 | 0.00 | 0.00 | 0.00 | 96 | 1014.1 |
| 20260905130401 | 74 | 125 | 0.0 | 5.0 | 0.00 | 0.00 | 0.00 | 96 | 1014.1 |
| 20260905130301 | 74 | 100 | 0.0 | 5.0 | 0.00 | 0.00 | 0.00 | 96 | 1014.1 |
| 20260905130204 | 74 | 84 | 0.0 | 5.0 | 0.00 | 0.00 | 0.00 | 96 | 1014.1 |
| 20260905130101 | 74 | 84 | 0.0 | 5.0 | 0.00 | 0.00 | 0.00 | 96 | 1014.1 |
| 20260905130003 | 74 | 84 | 0.0 | 5.0 | 0.00 | 0.00 | 0.00 | 96 | 1014.1 |
| 20260905125903 | 74 | 71 | 0.0 | 6.0 | 0.00 | 0.00 | 0.00 | 97 | 1014.0 |
| 20260905125702 | 74 | 81 | 0.0 | 6.0 | 0.00 | 0.00 | 0.00 | 97 | 1014.0 |
| 20260905125601 | 74 | 140 | 1.0 | 6.0 | 0.00 | 0.00 | 0.00 | 97 | 1014.1 |
| 20260905125401 | 74 | 62 | 1.0 | 9.0 | 0.00 | 0.00 | 0.00 | 97 | 1014.0 |
| 20260905125301 | 74 | 51 | 1.0 | 9.0 | 0.00 | 0.00 | 0.00 | 97 | 1014.0 |
| 20260905125200 | 74 | 91 | 1.0 | 9.0 | 0.00 | 0.00 | 0.00 | 97 | 1014.1 |
| 20260905125103 | 74 | 94 | 1.0 | 9.0 | 0.00 | 0.00 | 0.00 | 97 | 1014.0 |
| 20260905125000 | 74 | 38 | 1.0 | 9.0 | 0.00 | 0.00 | 0.00 | 97 | 1013.9 |
| 20260905124901 | 74 | 60 | 1.0 | 9.0 | 0.00 | 0.00 | 0.00 | 97 | 1014.0 |
| 20260905124801 | 74 | 93 | 1.0 | 9.0 | 0.00 | 0.00 | 0.00 | 97 | 1014.1 |
| 20260905124601 | 74 | 28 | 0.0 | 7.0 | 0.00 | 0.00 | 0.00 | 97 | 1014.0 |
| 20260905124501 | 74 | 70 | 0.0 | 1.0 | 0.00 | 0.00 | 0.00 | 97 | 1013.7 |
| 20260905124401 | 74 | 312 | 0.0 | 0.0 | 0.00 | 0.00 | 0.00 | 97 | 1013.7 |
| 20260905124303 | 74 | 312 | 0.0 | 0.0 | 0.00 | 0.00 | 0.00 | 97 | 1013.6 |
| 20260905124101 | 74 | 312 | 0.0 | 0.0 | 0.00 | 0.00 | 0.00 | 97 | 1013.6 |
| 20260905124001 | 74 | 312 | 0.0 | 0.0 | 0.00 | 0.00 | 0.00 | 97 | 1013.6 |
| 20260905123903 | 74 | 312 | 0.0 | 0.0 | 0.00 | 0.00 | 0.00 | 97 | 1013.5 |
| 20260905123701 | 74 | 312 | 0.0 | 0.0 | 0.00 | 0.00 | 0.00 | 97 | 1013.5 |
| 20260905123600 | 74 | 312 | 0.0 | 0.0 | 0.00 | 0.00 | 0.00 | 97 | 1013.6 |
| 20260905123504 | 74 | 312 | 0.0 | 0.0 | 0.00 | 0.00 | 0.00 | 97 | 1013.6 |
| 20260905123101 | 74 | 312 | 0.0 | 0.0 | 0.00 | 0.00 | 0.00 | 97 | 1013.5 |
| 20260905123001 | 74 | 311 | 0.0 | 0.0 | 0.00 | 0.00 | 0.00 | 97 | 1013.4 |
| 20260905122802 | 74 | 311 | 0.0 | 0.0 | 0.00 | 0.00 | 0.00 | 97 | 1013.4 |
| 20260905122700 | 74 | 311 | 0.0 | 0.0 | 0.00 | 0.00 | 0.00 | 97 | 1013.5 |
| 20260905122501 | 74 | 311 | 0.0 | 0.0 | 0.00 | 0.00 | 0.00 | 97 | 1013.4 |
| 20260905122402 | 74 | 311 | 0.0 | 0.0 | 0.00 | 0.00 | 0.00 | 97 | 1013.4 |
| 20260905122301 | 74 | 311 | 0.0 | 0.0 | 0.00 | 0.00 | 0.00 | 97 | 1013.4 |
| 20260905122201 | 74 | 311 | 0.0 | 0.0 | 0.00 | 0.00 | 0.00 | 97 | 1013.5 |
| 20260905122101 | 74 | 311 | 0.0 | 0.0 | 0.00 | 0.00 | 0.00 | 97 | 1013.5 |
| 20260905121901 | 74 | 311 | 0.0 | 0.0 | 0.00 | 0.00 | 0.00 | 97 | 1013.4 |
| 20260905121801 | 74 | 311 | 0.0 | 0.0 | 0.00 | 0.00 | 0.00 | 97 | 1013.5 |
| 20260905121603 | 74 | 311 | 0.0 | 0.0 | 0.00 | 0.00 | 0.00 | 97 | 1013.4 |
| 20260905121501 | 74 | 311 | 0.0 | 0.0 | 0.00 | 0.00 | 0.00 | 97 | 1013.4 |
| 20260905121301 | 74 | 311 | 0.0 | 0.0 | 0.00 | 0.00 | 0.00 | 97 | 1013.5 |
| 20260905121203 | 74 | 311 | 0.0 | 0.0 | 0.00 | 0.00 | 0.00 | 97 | 1013.6 |
| 20260905121100 | 74 | 311 | 0.0 | 0.0 | 0.00 | 0.00 | 0.00 | 97 | 1013.5 |
| 20260905121002 | 74 | 311 | 0.0 | 0.0 | 0.00 | 0.00 | 0.00 | 97 | 1013.4 |
| 20260905120803 | 74 | 311 | 0.0 | 0.0 | 0.00 | 0.00 | 0.00 | 97 | 1013.4 |
| 20260905120701 | 74 | 311 | 0.0 | 0.0 | 0.00 | 0.00 | 0.00 | 97 | 1013.4 |
| 20260905120601 | 74 | 311 | 0.0 | 0.0 | 0.00 | 0.00 | 0.00 | 97 | 1013.3 |
| 20260905120501 | 74 | 311 | 0.0 | 0.0 | 0.00 | 0.00 | 0.00 | 97 | 1013.4 |
| 20260905120403 | 74 | 311 | 0.0 | 0.0 | 0.00 | 0.00 | 0.00 | 97 | 1013.3 |
| 20260905120301 | 74 | 311 | 0.0 | 0.0 | 0.00 | 0.00 | 0.00 | 97 | 1013.3 |
| 20260905120200 | 74 | 311 | 0.0 | 0.0 | 0.00 | 0.00 | 0.00 | 97 | 1013.3 |
| 20260905120100 | 74 | 311 | 0.0 | 0.0 | 0.00 | 0.00 | 0.00 | 97 | 1013.2 |
| 20260905120006 | 73 | 311 | 0.0 | 0.0 | 0.00 | 0.00 | 0.00 | 97 | 1013.2 |
| 20260905115901 | 73 | 311 | 0.0 | 0.0 | 0.00 | 0.00 | 0.00 | 97 | 1013.2 |
| 20260905115701 | 73 | 311 | 0.0 | 0.0 | 0.00 | 0.00 | 0.00 | 97 | 1013.1 |
| 20260905115604 | 73 | 311 | 0.0 | 0.0 | 0.00 | 0.00 | 0.00 | 97 | 1013.1 |
| 20260905115501 | 73 | 311 | 0.0 | 0.0 | 0.00 | 0.00 | 0.00 | 97 | 1013.2 |
| 20260905115402 | 73 | 311 | 0.0 | 0.0 | 0.00 | 0.00 | 0.00 | 97 | 1013.2 |
| 20260905115301 | 73 | 311 | 0.0 | 0.0 | 0.00 | 0.00 | 0.00 | 97 | 1013.2 |
| 20260905115203 | 73 | 311 | 0.0 | 0.0 | 0.00 | 0.00 | 0.00 | 97 | 1013.2 |
| 20260905115001 | 73 | 311 | 0.0 | 0.0 | 0.00 | 0.00 | 0.00 | 97 | 1013.1 |
| 20260905114804 | 73 | 311 | 0.0 | 0.0 | 0.00 | 0.00 | 0.00 | 97 | 1013.2 |
| 20260905114701 | 73 | 311 | 0.0 | 0.0 | 0.00 | 0.00 | 0.00 | 97 | 1013.1 |
| 20260905114601 | 73 | 311 | 0.0 | 0.0 | 0.00 | 0.00 | 0.00 | 97 | 1013.1 |
| 20260905114502 | 73 | 311 | 0.0 | 0.0 | 0.00 | 0.00 | 0.00 | 97 | 1013.1 |
| 20260905114403 | 73 | 311 | 0.0 | 0.0 | 0.00 | 0.00 | 0.00 | 97 | 1013.1 |
| 20260905114301 | 73 | 311 | 0.0 | 0.0 | 0.00 | 0.00 | 0.00 | 97 | 1013.1 |
| 20260905114101 | 73 | 311 | 0.0 | 0.0 | 0.00 | 0.00 | 0.00 | 97 | 1013.2 |
| 20260905113801 | 73 | 311 | 0.0 | 0.0 | 0.00 | 0.00 | 0.00 | 97 | 1013.1 |
| 20260905113701 | 73 | 311 | 0.0 | 0.0 | 0.00 | 0.00 | 0.00 | 97 | 1013.0 |
| 20260905113500 | 73 | 311 | 0.0 | 0.0 | 0.00 | 0.00 | 0.00 | 97 | 1013.1 |
| 20260905113401 | 73 | 311 | 0.0 | 0.0 | 0.00 | 0.00 | 0.00 | 97 | 1013.0 |
| 20260905113301 | 73 | 311 | 0.0 | 0.0 | 0.00 | 0.00 | 0.00 | 97 | 1013.0 |
| 20260905113203 | 73 | 311 | 0.0 | 0.0 | 0.00 | 0.00 | 0.00 | 97 | 1012.9 |
| 20260905113101 | 73 | 311 | 0.0 | 0.0 | 0.00 | 0.00 | 0.00 | 96 | 1013.0 |
| 20260905113001 | 73 | 311 | 0.0 | 0.0 | 0.00 | 0.00 | 0.00 | 96 | 1013.0 |
| 20260905112701 | 73 | 311 | 0.0 | 0.0 | 0.00 | 0.00 | 0.00 | 96 | 1012.9 |
| 20260905112601 | 73 | 311 | 0.0 | 0.0 | 0.00 | 0.00 | 0.00 | 96 | 1012.9 |
| 20260905112501 | 73 | 311 | 0.0 | 0.0 | 0.00 | 0.00 | 0.00 | 96 | 1012.9 |
| 20260905112403 | 73 | 311 | 0.0 | 0.0 | 0.00 | 0.00 | 0.00 | 96 | 1012.8 |
| 20260905112300 | 73 | 311 | 0.0 | 0.0 | 0.00 | 0.00 | 0.00 | 96 | 1012.8 |
| 20260905112201 | 73 | 311 | 0.0 | 0.0 | 0.00 | 0.00 | 0.00 | 96 | 1012.8 |
| 20260905112102 | 73 | 311 | 0.0 | 0.0 | 0.00 | 0.00 | 0.00 | 96 | 1012.8 |
| 20260905112003 | 73 | 311 | 0.0 | 0.0 | 0.00 | 0.00 | 0.00 | 96 | 1012.8 |
| 20260905111901 | 73 | 311 | 0.0 | 0.0 | 0.00 | 0.00 | 0.00 | 96 | 1012.8 |
| 20260905111802 | 73 | 311 | 0.0 | 0.0 | 0.00 | 0.00 | 0.00 | 96 | 1012.7 |
| 20260905111700 | 73 | 311 | 0.0 | 0.0 | 0.00 | 0.00 | 0.00 | 96 | 1012.7 |
| 20260905111604 | 73 | 311 | 0.0 | 0.0 | 0.00 | 0.00 | 0.00 | 96 | 1012.7 |
| 20260905111501 | 73 | 311 | 0.0 | 0.0 | 0.00 | 0.00 | 0.00 | 96 | 1012.6 |
| 20260905111401 | 73 | 311 | 0.0 | 0.0 | 0.00 | 0.00 | 0.00 | 96 | 1012.6 |
| 20260905111300 | 73 | 311 | 0.0 | 0.0 | 0.00 | 0.00 | 0.00 | 96 | 1012.6 |
| 20260905111100 | 73 | 311 | 0.0 | 0.0 | 0.00 | 0.00 | 0.00 | 96 | 1012.6 |
| 20260905111000 | 73 | 311 | 0.0 | 0.0 | 0.00 | 0.00 | 0.00 | 97 | 1012.6 |
| 20260905110901 | 73 | 311 | 0.0 | 0.0 | 0.00 | 0.00 | 0.00 | 97 | 1012.6 |
| 20260905110802 | 73 | 311 | 0.0 | 0.0 | 0.00 | 0.00 | 0.00 | 97 | 1012.6 |
| 20260905110601 | 73 | 311 | 0.0 | 0.0 | 0.00 | 0.00 | 0.00 | 97 | 1012.6 |
| 20260905110501 | 73 | 311 | 0.0 | 0.0 | 0.00 | 0.00 | 0.00 | 97 | 1012.6 |
| 20260905110402 | 73 | 311 | 0.0 | 0.0 | 0.00 | 0.00 | 0.00 | 97 | 1012.7 |
| 20260905110300 | 73 | 311 | 0.0 | 0.0 | 0.00 | 0.00 | 0.00 | 97 | 1012.6 |
| 20260905110201 | 73 | 311 | 0.0 | 0.0 | 0.00 | 0.00 | 0.00 | 97 | 1012.6 |
| 20260905110101 | 73 | 311 | 0.0 | 0.0 | 0.00 | 0.00 | 0.00 | 97 | 1012.6 |
| 20260905105801 | 73 | 311 | 0.0 | 0.0 | 0.00 | 0.00 | 0.00 | 97 | 1012.5 |
| 20260905105603 | 73 | 311 | 0.0 | 0.0 | 0.00 | 0.00 | 0.00 | 97 | 1012.6 |
| 20260905105501 | 73 | 311 | 0.0 | 0.0 | 0.00 | 0.00 | 0.00 | 97 | 1012.5 |
| 20260905105401 | 73 | 311 | 0.0 | 0.0 | 0.00 | 0.00 | 0.00 | 97 | 1012.6 |
| 20260905105300 | 73 | 311 | 0.0 | 0.0 | 0.00 | 0.00 | 0.00 | 97 | 1012.5 |
| 20260905105205 | 73 | 311 | 0.0 | 0.0 | 0.00 | 0.00 | 0.00 | 97 | 1012.5 |
| 20260905105101 | 73 | 311 | 0.0 | 0.0 | 0.00 | 0.00 | 0.00 | 97 | 1012.6 |
| 20260905105001 | 73 | 311 | 0.0 | 0.0 | 0.00 | 0.00 | 0.00 | 97 | 1012.6 |
| 20260905104901 | 73 | 311 | 0.0 | 0.0 | 0.00 | 0.00 | 0.00 | 97 | 1012.6 |
| 20260905104804 | 73 | 311 | 0.0 | 0.0 | 0.00 | 0.00 | 0.00 | 97 | 1012.7 |
| 20260905104601 | 73 | 311 | 0.0 | 0.0 | 0.00 | 0.00 | 0.00 | 97 | 1012.7 |
| 20260905104501 | 73 | 311 | 0.0 | 0.0 | 0.00 | 0.00 | 0.00 | 96 | 1012.7 |
| 20260905104403 | 73 | 311 | 0.0 | 0.0 | 0.00 | 0.00 | 0.00 | 96 | 1012.7 |
| 20260905104301 | 73 | 311 | 0.0 | 0.0 | 0.00 | 0.00 | 0.00 | 96 | 1012.7 |
| 20260905104201 | 73 | 311 | 0.0 | 0.0 | 0.00 | 0.00 | 0.00 | 96 | 1012.7 |
| 20260905104101 | 73 | 311 | 0.0 | 0.0 | 0.00 | 0.00 | 0.00 | 96 | 1012.6 |
| 20260905104003 | 73 | 311 | 0.0 | 0.0 | 0.00 | 0.00 | 0.00 | 96 | 1012.6 |
| 20260905103800 | 73 | 311 | 0.0 | 0.0 | 0.00 | 0.00 | 0.00 | 96 | 1012.7 |
| 20260905103701 | 73 | 311 | 0.0 | 0.0 | 0.00 | 0.00 | 0.00 | 96 | 1012.6 |
| 20260905103603 | 73 | 311 | 0.0 | 0.0 | 0.00 | 0.00 | 0.00 | 96 | 1012.7 |
| 20260905103501 | 74 | 311 | 0.0 | 0.0 | 0.00 | 0.00 | 0.00 | 96 | 1012.6 |
| 20260905103401 | 74 | 311 | 0.0 | 0.0 | 0.00 | 0.00 | 0.00 | 96 | 1012.7 |
| 20260905103301 | 74 | 311 | 0.0 | 0.0 | 0.00 | 0.00 | 0.00 | 96 | 1012.7 |
| 20260905103203 | 74 | 311 | 0.0 | 0.0 | 0.00 | 0.00 | 0.00 | 96 | 1012.7 |
| 20260905103101 | 74 | 311 | 0.0 | 0.0 | 0.00 | 0.00 | 0.00 | 96 | 1012.7 |
| 20260905103001 | 74 | 311 | 0.0 | 0.0 | 0.00 | 0.00 | 0.00 | 96 | 1012.8 |
| 20260905102900 | 74 | 311 | 0.0 | 0.0 | 0.00 | 0.00 | 0.00 | 96 | 1012.7 |
| 20260905102803 | 74 | 311 | 0.0 | 0.0 | 0.00 | 0.00 | 0.00 | 96 | 1012.8 |
| 20260905102701 | 74 | 311 | 0.0 | 0.0 | 0.00 | 0.00 | 0.00 | 96 | 1012.8 |
| 20260905102600 | 74 | 311 | 0.0 | 0.0 | 0.00 | 0.00 | 0.00 | 96 | 1012.7 |
| 20260905102501 | 74 | 311 | 0.0 | 0.0 | 0.00 | 0.00 | 0.00 | 96 | 1012.8 |
| 20260905102403 | 74 | 311 | 0.0 | 0.0 | 0.00 | 0.00 | 0.00 | 96 | 1012.8 |
| 20260905102301 | 74 | 311 | 0.0 | 0.0 | 0.00 | 0.00 | 0.00 | 96 | 1012.9 |
| 20260905102200 | 74 | 311 | 0.0 | 0.0 | 0.00 | 0.00 | 0.00 | 96 | 1012.9 |
| 20260905102102 | 74 | 311 | 0.0 | 0.0 | 0.00 | 0.00 | 0.00 | 96 | 1012.8 |
| 20260905102003 | 74 | 311 | 0.0 | 0.0 | 0.00 | 0.00 | 0.00 | 96 | 1012.9 |
| 20260905101901 | 74 | 311 | 0.0 | 0.0 | 0.00 | 0.00 | 0.00 | 96 | 1012.9 |
| 20260905101801 | 74 | 311 | 0.0 | 0.0 | 0.00 | 0.00 | 0.00 | 96 | 1012.9 |
| 20260905101701 | 74 | 311 | 0.0 | 0.0 | 0.00 | 0.00 | 0.00 | 96 | 1012.9 |